Wetterdaten: Donnerstag, 01.09.2016
Datum Zeit Temp. A. Feuchte A. Luftdruck Regen Wind Richtung Richtung Sonnenschein ET UV Solar Taupunkt Windchill Windben Empfang
01.09.2016 00:00 14,4 C 85 % 1019,2 hPa 0,0 l/m 2,3 km/h (1 Bft) O 82 0 min 0,000 mm 0,0 UV-I 0 W/m 11,9 C 14,4 C 3,2 km/h (1 Bft) 100,00 %
01.09.2016 00:02 14,3 C 85 % 1019,2 hPa 0,0 l/m 3,2 km/h (1 Bft) O 82 0 min 0,000 mm 0,0 UV-I 0 W/m 11,8 C 14,3 C 3,2 km/h (1 Bft) 97,22 %
01.09.2016 00:04 14,2 C 86 % 1019,2 hPa 0,0 l/m 1,8 km/h (1 Bft) O 82 0 min 0,000 mm 0,0 UV-I 0 W/m 11,9 C 14,2 C 3,2 km/h (1 Bft) 97,87 %
01.09.2016 00:06 14,1 C 85 % 1019,2 hPa 0,0 l/m 0,7 km/h (0 Bft) O 82 0 min 0,000 mm 0,0 UV-I 0 W/m 11,6 C 14,1 C 1,6 km/h (1 Bft) 100,00 %
01.09.2016 00:08 13,9 C 86 % 1019,2 hPa 0,0 l/m 1,3 km/h (1 Bft) O 82 0 min 0,000 mm 0,0 UV-I 0 W/m 11,6 C 13,9 C 3,2 km/h (1 Bft) 97,92 %
01.09.2016 00:10 13,8 C 87 % 1019,2 hPa 0,0 l/m 0,5 km/h (0 Bft) O 82 0 min 0,000 mm 0,0 UV-I 0 W/m 11,7 C 13,8 C 1,6 km/h (1 Bft) 100,00 %
01.09.2016 00:12 13,8 C 87 % 1019,2 hPa 0,0 l/m 0,0 km/h (0 Bft) O 82 0 min 0,000 mm 0,0 UV-I 0 W/m 11,7 C 13,8 C 0,0 km/h (0 Bft) 97,87 %
01.09.2016 00:14 13,9 C 87 % 1019,2 hPa 0,0 l/m 0,1 km/h (0 Bft) O 82 0 min 0,000 mm 0,0 UV-I 0 W/m 11,8 C 13,9 C 1,6 km/h (1 Bft) 100,00 %
01.09.2016 00:16 14,0 C 87 % 1019,2 hPa 0,0 l/m 1,7 km/h (1 Bft) O 82 0 min 0,000 mm 0,0 UV-I 0 W/m 11,9 C 14,0 C 3,2 km/h (1 Bft) 100,00 %
01.09.2016 00:18 14,0 C 86 % 1019,3 hPa 0,0 l/m 1,5 km/h (1 Bft) O 82 0 min 0,000 mm 0,0 UV-I 0 W/m 11,7 C 14,0 C 3,2 km/h (1 Bft) 100,00 %
01.09.2016 00:20 14,0 C 86 % 1019,2 hPa 0,0 l/m 0,1 km/h (0 Bft) O 82 0 min 0,000 mm 0,0 UV-I 0 W/m 11,7 C 14,0 C 1,6 km/h (1 Bft) 100,00 %
01.09.2016 00:22 14,0 C 86 % 1019,2 hPa 0,0 l/m 0,0 km/h (0 Bft) O 82 0 min 0,000 mm 0,0 UV-I 0 W/m 11,7 C 14,0 C 1,6 km/h (1 Bft) 100,00 %
01.09.2016 00:24 14,0 C 86 % 1019,2 hPa 0,0 l/m 0,0 km/h (0 Bft) O 82 0 min 0,000 mm 0,0 UV-I 0 W/m 11,7 C 14,0 C 0,0 km/h (0 Bft) 97,92 %
01.09.2016 00:26 13,9 C 86 % 1019,2 hPa 0,0 l/m 1,8 km/h (1 Bft) O 82 0 min 0,000 mm 0,0 UV-I 0 W/m 11,6 C 13,9 C 3,2 km/h (1 Bft) 97,87 %
01.09.2016 00:28 13,9 C 86 % 1019,2 hPa 0,0 l/m 1,3 km/h (1 Bft) O 82 0 min 0,000 mm 0,0 UV-I 0 W/m 11,6 C 13,9 C 3,2 km/h (1 Bft) 97,87 %
01.09.2016 00:30 13,8 C 86 % 1019,2 hPa 0,0 l/m 1,0 km/h (0 Bft) O 82 0 min 0,000 mm 0,0 UV-I 0 W/m 11,5 C 13,8 C 3,2 km/h (1 Bft) 100,00 %
01.09.2016 00:32 13,7 C 86 % 1019,2 hPa 0,0 l/m 1,5 km/h (1 Bft) O 82 0 min 0,000 mm 0,0 UV-I 0 W/m 11,4 C 13,7 C 3,2 km/h (1 Bft) 97,37 %
01.09.2016 00:34 13,7 C 87 % 1019,2 hPa 0,0 l/m 2,1 km/h (1 Bft) O 82 0 min 0,000 mm 0,0 UV-I 0 W/m 11,6 C 13,7 C 3,2 km/h (1 Bft) 98,00 %
01.09.2016 00:36 13,7 C 87 % 1019,2 hPa 0,0 l/m 2,3 km/h (1 Bft) O 82 0 min 0,000 mm 0,0 UV-I 0 W/m 11,6 C 13,7 C 3,2 km/h (1 Bft) 97,87 %
01.09.2016 00:38 13,7 C 87 % 1019,2 hPa 0,0 l/m 2,2 km/h (1 Bft) O 82 0 min 0,000 mm 0,0 UV-I 0 W/m 11,6 C 13,7 C 3,2 km/h (1 Bft) 95,74 %
01.09.2016 00:40 13,7 C 87 % 1019,2 hPa 0,0 l/m 1,1 km/h (1 Bft) O 82 0 min 0,000 mm 0,0 UV-I 0 W/m 11,6 C 13,7 C 1,6 km/h (1 Bft) 95,74 %
01.09.2016 00:42 13,7 C 87 % 1019,2 hPa 0,0 l/m 1,5 km/h (1 Bft) O 82 0 min 0,000 mm 0,0 UV-I 0 W/m 11,6 C 13,7 C 3,2 km/h (1 Bft) 97,87 %
01.09.2016 00:44 13,6 C 87 % 1019,2 hPa 0,0 l/m 1,6 km/h (1 Bft) O 82 0 min 0,000 mm 0,0 UV-I 0 W/m 11,5 C 13,6 C 3,2 km/h (1 Bft) 95,74 %
01.09.2016 00:46 13,6 C 88 % 1019,2 hPa 0,0 l/m 1,8 km/h (1 Bft) O 82 0 min 0,000 mm 0,0 UV-I 0 W/m 11,6 C 13,6 C 3,2 km/h (1 Bft) 95,83 %
01.09.2016 00:48 13,6 C 88 % 1019,2 hPa 0,0 l/m 2,3 km/h (1 Bft) O 82 0 min 0,000 mm 0,0 UV-I 0 W/m 11,6 C 13,6 C 3,2 km/h (1 Bft) 95,74 %
01.09.2016 00:50 13,5 C 88 % 1019,2 hPa 0,0 l/m 3,0 km/h (1 Bft) O 82 0 min 0,000 mm 0,0 UV-I 0 W/m 11,6 C 13,5 C 3,2 km/h (1 Bft) 97,37 %
01.09.2016 00:52 13,4 C 88 % 1019,2 hPa 0,0 l/m 2,4 km/h (1 Bft) O 92 0 min 0,000 mm 0,0 UV-I 0 W/m 11,5 C 13,4 C 3,2 km/h (1 Bft) 98,00 %
01.09.2016 00:54 13,4 C 89 % 1019,3 hPa 0,0 l/m 1,4 km/h (1 Bft) O 92 0 min 0,000 mm 0,0 UV-I 0 W/m 11,6 C 13,4 C 1,6 km/h (1 Bft) 93,62 %
01.09.2016 00:56 13,4 C 89 % 1019,3 hPa 0,0 l/m 2,4 km/h (1 Bft) O-SO 119 0 min 0,000 mm 0,0 UV-I 0 W/m 11,6 C 13,4 C 3,2 km/h (1 Bft) 95,83 %
01.09.2016 00:58 13,4 C 88 % 1019,3 hPa 0,0 l/m 2,5 km/h (1 Bft) O-SO 119 0 min 0,000 mm 0,0 UV-I 0 W/m 11,5 C 13,4 C 3,2 km/h (1 Bft) 95,74 %
01.09.2016 01:00 13,3 C 88 % 1019,4 hPa 0,0 l/m 2,2 km/h (1 Bft) O-SO 119 0 min 0,000 mm 0,0 UV-I 0 W/m 11,4 C 13,3 C 3,2 km/h (1 Bft) 97,87 %
01.09.2016 01:02 13,3 C 89 % 1019,4 hPa 0,0 l/m 2,6 km/h (1 Bft) O-SO 119 0 min 0,000 mm 0,0 UV-I 0 W/m 11,5 C 13,3 C 3,2 km/h (1 Bft) 97,87 %
01.09.2016 01:04 13,3 C 89 % 1019,4 hPa 0,0 l/m 2,6 km/h (1 Bft) O-SO 119 0 min 0,000 mm 0,0 UV-I 0 W/m 11,5 C 13,3 C 3,2 km/h (1 Bft) 97,87 %
01.09.2016 01:06 13,3 C 89 % 1019,4 hPa 0,0 l/m 3,4 km/h (1 Bft) O-SO 119 0 min 0,000 mm 0,0 UV-I 0 W/m 11,5 C 13,3 C 4,8 km/h (1 Bft) 100,00 %
01.09.2016 01:08 13,3 C 89 % 1019,4 hPa 0,0 l/m 3,9 km/h (1 Bft) S-SO 158 0 min 0,000 mm 0,0 UV-I 0 W/m 11,5 C 13,3 C 8,0 km/h (2 Bft) 97,87 %
01.09.2016 01:10 13,3 C 89 % 1019,4 hPa 0,0 l/m 1,2 km/h (1 Bft) S-SO 158 0 min 0,000 mm 0,0 UV-I 0 W/m 11,5 C 13,3 C 3,2 km/h (1 Bft) 100,00 %
01.09.2016 01:12 13,3 C 89 % 1019,4 hPa 0,0 l/m 0,6 km/h (0 Bft) S-SO 158 0 min 0,000 mm 0,0 UV-I 0 W/m 11,5 C 13,3 C 1,6 km/h (1 Bft) 100,00 %
01.09.2016 01:14 13,3 C 89 % 1019,4 hPa 0,0 l/m 2,0 km/h (1 Bft) S-SO 158 0 min 0,000 mm 0,0 UV-I 0 W/m 11,5 C 13,3 C 3,2 km/h (1 Bft) 98,00 %
01.09.2016 01:16 13,3 C 89 % 1019,4 hPa 0,0 l/m 2,8 km/h (1 Bft) S-SO 158 0 min 0,000 mm 0,0 UV-I 0 W/m 11,5 C 13,3 C 4,8 km/h (1 Bft) 97,87 %
01.09.2016 01:18 13,4 C 89 % 1019,4 hPa 0,0 l/m 3,2 km/h (1 Bft) S-SO 158 0 min 0,000 mm 0,0 UV-I 0 W/m 11,6 C 13,4 C 4,8 km/h (1 Bft) 100,00 %
01.09.2016 01:20 13,5 C 90 % 1019,4 hPa 0,0 l/m 3,1 km/h (1 Bft) S-SO 158 0 min 0,000 mm 0,0 UV-I 0 W/m 11,9 C 13,5 C 4,8 km/h (1 Bft) 100,00 %
01.09.2016 01:22 13,5 C 89 % 1019,5 hPa 0,0 l/m 1,4 km/h (1 Bft) S-SO 158 0 min 0,000 mm 0,0 UV-I 0 W/m 11,7 C 13,5 C 3,2 km/h (1 Bft) 100,00 %
01.09.2016 01:24 13,4 C 89 % 1019,4 hPa 0,0 l/m 1,6 km/h (1 Bft) S-SO 158 0 min 0,000 mm 0,0 UV-I 0 W/m 11,6 C 13,4 C 3,2 km/h (1 Bft) 97,87 %
01.09.2016 01:26 13,4 C 90 % 1019,4 hPa 0,0 l/m 1,5 km/h (1 Bft) S-SO 158 0 min 0,000 mm 0,0 UV-I 0 W/m 11,8 C 13,4 C 3,2 km/h (1 Bft) 98,00 %
01.09.2016 01:28 13,3 C 89 % 1019,4 hPa 0,0 l/m 0,7 km/h (0 Bft) S-SO 158 0 min 0,000 mm 0,0 UV-I 0 W/m 11,5 C 13,3 C 1,6 km/h (1 Bft) 97,87 %
01.09.2016 01:30 13,3 C 90 % 1019,4 hPa 0,0 l/m 1,4 km/h (1 Bft) S-SO 158 0 min 0,000 mm 0,0 UV-I 0 W/m 11,7 C 13,3 C 3,2 km/h (1 Bft) 100,00 %
01.09.2016 01:32 13,3 C 90 % 1019,4 hPa 0,0 l/m 1,9 km/h (1 Bft) S-SO 158 0 min 0,000 mm 0,0 UV-I 0 W/m 11,7 C 13,3 C 3,2 km/h (1 Bft) 94,00 %
01.09.2016 01:34 13,3 C 90 % 1019,4 hPa 0,0 l/m 1,8 km/h (1 Bft) S-SO 158 0 min 0,000 mm 0,0 UV-I 0 W/m 11,7 C 13,3 C 3,2 km/h (1 Bft) 100,00 %
01.09.2016 01:36 13,3 C 91 % 1019,4 hPa 0,0 l/m 1,5 km/h (1 Bft) S-SO 158 0 min 0,000 mm 0,0 UV-I 0 W/m 11,9 C 13,3 C 1,6 km/h (1 Bft) 100,00 %
01.09.2016 01:38 13,3 C 91 % 1019,4 hPa 0,0 l/m 1,2 km/h (1 Bft) S-SO 158 0 min 0,000 mm 0,0 UV-I 0 W/m 11,9 C 13,3 C 1,6 km/h (1 Bft) 100,00 %
01.09.2016 01:40 13,3 C 90 % 1019,3 hPa 0,0 l/m 1,4 km/h (1 Bft) S-SO 158 0 min 0,000 mm 0,0 UV-I 0 W/m 11,7 C 13,3 C 3,2 km/h (1 Bft) 97,87 %
01.09.2016 01:42 13,3 C 90 % 1019,4 hPa 0,0 l/m 2,2 km/h (1 Bft) S-SO 158 0 min 0,000 mm 0,0 UV-I 0 W/m 11,7 C 13,3 C 3,2 km/h (1 Bft) 100,00 %
01.09.2016 01:44 13,3 C 90 % 1019,4 hPa 0,0 l/m 2,2 km/h (1 Bft) S-SO 158 0 min 0,000 mm 0,0 UV-I 0 W/m 11,7 C 13,3 C 3,2 km/h (1 Bft) 97,87 %
01.09.2016 01:46 13,3 C 90 % 1019,4 hPa 0,0 l/m 1,9 km/h (1 Bft) S-SO 158 0 min 0,000 mm 0,0 UV-I 0 W/m 11,7 C 13,3 C 3,2 km/h (1 Bft) 97,87 %
01.09.2016 01:48 13,3 C 91 % 1019,3 hPa 0,0 l/m 2,0 km/h (1 Bft) S-SO 158 0 min 0,000 mm 0,0 UV-I 0 W/m 11,9 C 13,3 C 3,2 km/h (1 Bft) 100,00 %
01.09.2016 01:50 13,3 C 90 % 1019,4 hPa 0,0 l/m 2,1 km/h (1 Bft) S-SO 158 0 min 0,000 mm 0,0 UV-I 0 W/m 11,7 C 13,3 C 3,2 km/h (1 Bft) 100,00 %
01.09.2016 01:52 13,2 C 90 % 1019,4 hPa 0,0 l/m 2,6 km/h (1 Bft) S-SO 158 0 min 0,000 mm 0,0 UV-I 0 W/m 11,6 C 13,2 C 3,2 km/h (1 Bft) 97,87 %
01.09.2016 01:54 13,2 C 91 % 1019,4 hPa 0,0 l/m 1,4 km/h (1 Bft) S-SO 158 0 min 0,000 mm 0,0 UV-I 0 W/m 11,8 C 13,2 C 3,2 km/h (1 Bft) 100,00 %
01.09.2016 01:56 13,2 C 91 % 1019,4 hPa 0,0 l/m 0,5 km/h (0 Bft) S-SO 158 0 min 0,000 mm 0,0 UV-I 0 W/m 11,8 C 13,2 C 1,6 km/h (1 Bft) 100,00 %
01.09.2016 01:58 13,2 C 91 % 1019,4 hPa 0,0 l/m 1,3 km/h (1 Bft) S-SO 158 0 min 0,000 mm 0,0 UV-I 0 W/m 11,8 C 13,2 C 3,2 km/h (1 Bft) 97,87 %
01.09.2016 02:00 13,2 C 91 % 1019,4 hPa 0,0 l/m 2,6 km/h (1 Bft) S-SO 158 0 min 0,000 mm 0,0 UV-I 0 W/m 11,8 C 13,2 C 4,8 km/h (1 Bft) 100,00 %
01.09.2016 02:02 13,2 C 91 % 1019,4 hPa 0,0 l/m 3,0 km/h (1 Bft) S-SO 158 0 min 0,000 mm 0,0 UV-I 0 W/m 11,8 C 13,2 C 4,8 km/h (1 Bft) 97,87 %
01.09.2016 02:04 13,2 C 91 % 1019,4 hPa 0,0 l/m 3,4 km/h (1 Bft) S-SO 158 0 min 0,000 mm 0,0 UV-I 0 W/m 11,8 C 13,2 C 4,8 km/h (1 Bft) 100,00 %
01.09.2016 02:06 13,2 C 91 % 1019,4 hPa 0,0 l/m 2,7 km/h (1 Bft) S-SO 158 0 min 0,000 mm 0,0 UV-I 0 W/m 11,8 C 13,2 C 4,8 km/h (1 Bft) 100,00 %
01.09.2016 02:08 13,2 C 91 % 1019,4 hPa 0,0 l/m 0,9 km/h (0 Bft) S-SO 158 0 min 0,000 mm 0,0 UV-I 0 W/m 11,8 C 13,2 C 1,6 km/h (1 Bft) 100,00 %
01.09.2016 02:10 13,1 C 92 % 1019,4 hPa 0,0 l/m 2,2 km/h (1 Bft) S-SO 158 0 min 0,000 mm 0,0 UV-I 0 W/m 11,8 C 13,1 C 4,8 km/h (1 Bft) 97,87 %
01.09.2016 02:12 13,2 C 92 % 1019,4 hPa 0,0 l/m 2,9 km/h (1 Bft) S-SO 158 0 min 0,000 mm 0,0 UV-I 0 W/m 11,9 C 13,2 C 4,8 km/h (1 Bft) 100,00 %
01.09.2016 02:14 13,2 C 92 % 1019,4 hPa 0,0 l/m 2,3 km/h (1 Bft) S-SO 158 0 min 0,000 mm 0,0 UV-I 0 W/m 11,9 C 13,2 C 3,2 km/h (1 Bft) 100,00 %
01.09.2016 02:16 13,2 C 92 % 1019,4 hPa 0,0 l/m 1,5 km/h (1 Bft) S-SO 158 0 min 0,000 mm 0,0 UV-I 0 W/m 11,9 C 13,2 C 3,2 km/h (1 Bft) 100,00 %
01.09.2016 02:18 13,2 C 93 % 1019,4 hPa 0,0 l/m 2,3 km/h (1 Bft) S-SO 158 0 min 0,000 mm 0,0 UV-I 0 W/m 12,1 C 13,2 C 3,2 km/h (1 Bft) 100,00 %
01.09.2016 02:20 13,3 C 93 % 1019,4 hPa 0,0 l/m 2,1 km/h (1 Bft) S-SO 158 0 min 0,000 mm 0,0 UV-I 0 W/m 12,2 C 13,3 C 3,2 km/h (1 Bft) 100,00 %
01.09.2016 02:22 13,2 C 92 % 1019,4 hPa 0,0 l/m 3,6 km/h (1 Bft) S-SO 158 0 min 0,000 mm 0,0 UV-I 0 W/m 11,9 C 13,2 C 4,8 km/h (1 Bft) 100,00 %
01.09.2016 02:24 13,1 C 92 % 1019,4 hPa 0,0 l/m 5,5 km/h (1 Bft) S 173 0 min 0,000 mm 0,0 UV-I 0 W/m 11,8 C 13,1 C 8,0 km/h (2 Bft) 97,87 %
01.09.2016 02:26 13,1 C 93 % 1019,4 hPa 0,0 l/m 3,5 km/h (1 Bft) S 177 0 min 0,000 mm 0,0 UV-I 0 W/m 12,0 C 13,1 C 8,0 km/h (2 Bft) 97,87 %
01.09.2016 02:28 13,2 C 93 % 1019,4 hPa 0,0 l/m 2,5 km/h (1 Bft) S 177 0 min 0,000 mm 0,0 UV-I 0 W/m 12,1 C 13,2 C 4,8 km/h (1 Bft) 100,00 %
01.09.2016 02:30 13,2 C 93 % 1019,4 hPa 0,0 l/m 2,9 km/h (1 Bft) S 177 0 min 0,000 mm 0,0 UV-I 0 W/m 12,1 C 13,2 C 4,8 km/h (1 Bft) 100,00 %
01.09.2016 02:32 13,3 C 93 % 1019,4 hPa 0,0 l/m 3,2 km/h (1 Bft) S 177 0 min 0,000 mm 0,0 UV-I 0 W/m 12,2 C 13,3 C 4,8 km/h (1 Bft) 97,87 %
01.09.2016 02:34 13,3 C 93 % 1019,4 hPa 0,0 l/m 2,7 km/h (1 Bft) S 177 0 min 0,000 mm 0,0 UV-I 0 W/m 12,2 C 13,3 C 3,2 km/h (1 Bft) 97,87 %
01.09.2016 02:36 13,2 C 93 % 1019,3 hPa 0,0 l/m 1,6 km/h (1 Bft) S 177 0 min 0,000 mm 0,0 UV-I 0 W/m 12,1 C 13,2 C 3,2 km/h (1 Bft) 97,87 %
01.09.2016 02:38 13,2 C 93 % 1019,4 hPa 0,0 l/m 0,4 km/h (0 Bft) S 177 0 min 0,000 mm 0,0 UV-I 0 W/m 12,1 C 13,2 C 1,6 km/h (1 Bft) 97,87 %
01.09.2016 02:40 13,1 C 93 % 1019,4 hPa 0,0 l/m 1,2 km/h (1 Bft) S 177 0 min 0,000 mm 0,0 UV-I 0 W/m 12,0 C 13,1 C 3,2 km/h (1 Bft) 93,62 %
01.09.2016 02:42 13,1 C 93 % 1019,4 hPa 0,0 l/m 2,7 km/h (1 Bft) S 177 0 min 0,000 mm 0,0 UV-I 0 W/m 12,0 C 13,1 C 4,8 km/h (1 Bft) 96,00 %
01.09.2016 02:44 13,2 C 93 % 1019,4 hPa 0,0 l/m 3,5 km/h (1 Bft) S 177 0 min 0,000 mm 0,0 UV-I 0 W/m 12,1 C 13,2 C 4,8 km/h (1 Bft) 95,74 %
01.09.2016 02:46 13,2 C 93 % 1019,4 hPa 0,0 l/m 1,9 km/h (1 Bft) S 177 0 min 0,000 mm 0,0 UV-I 0 W/m 12,1 C 13,2 C 3,2 km/h (1 Bft) 95,74 %
01.09.2016 02:48 13,1 C 93 % 1019,4 hPa 0,0 l/m 2,6 km/h (1 Bft) S 177 0 min 0,000 mm 0,0 UV-I 0 W/m 12,0 C 13,1 C 3,2 km/h (1 Bft) 95,74 %
01.09.2016 02:50 13,1 C 93 % 1019,5 hPa 0,0 l/m 3,3 km/h (1 Bft) S 177 0 min 0,000 mm 0,0 UV-I 0 W/m 12,0 C 13,1 C 4,8 km/h (1 Bft) 97,87 %
01.09.2016 02:52 13,1 C 93 % 1019,5 hPa 0,0 l/m 2,8 km/h (1 Bft) S 177 0 min 0,000 mm 0,0 UV-I 0 W/m 12,0 C 13,1 C 3,2 km/h (1 Bft) 97,37 %
01.09.2016 02:54 13,1 C 93 % 1019,5 hPa 0,0 l/m 2,6 km/h (1 Bft) S 177 0 min 0,000 mm 0,0 UV-I 0 W/m 12,0 C 13,1 C 3,2 km/h (1 Bft) 98,00 %
01.09.2016 02:56 12,9 C 93 % 1019,4 hPa 0,0 l/m 2,8 km/h (1 Bft) S 177 0 min 0,000 mm 0,0 UV-I 0 W/m 11,8 C 12,9 C 3,2 km/h (1 Bft) 95,83 %
01.09.2016 02:58 12,8 C 93 % 1019,4 hPa 0,0 l/m 2,7 km/h (1 Bft) S 177 0 min 0,000 mm 0,0 UV-I 0 W/m 11,7 C 12,8 C 3,2 km/h (1 Bft) 95,74 %
01.09.2016 03:00 12,8 C 93 % 1019,4 hPa 0,0 l/m 2,5 km/h (1 Bft) S 177 0 min 0,000 mm 0,0 UV-I 0 W/m 11,7 C 12,8 C 3,2 km/h (1 Bft) 93,62 %
01.09.2016 03:02 12,8 C 93 % 1019,4 hPa 0,0 l/m 0,9 km/h (0 Bft) S 177 0 min 0,000 mm 0,0 UV-I 0 W/m 11,7 C 12,8 C 3,2 km/h (1 Bft) 95,74 %
01.09.2016 03:04 12,8 C 93 % 1019,4 hPa 0,0 l/m 0,2 km/h (0 Bft) S 177 0 min 0,000 mm 0,0 UV-I 0 W/m 11,7 C 12,8 C 1,6 km/h (1 Bft) 93,62 %
01.09.2016 03:06 12,8 C 94 % 1019,4 hPa 0,0 l/m 0,3 km/h (0 Bft) S 177 0 min 0,000 mm 0,0 UV-I 0 W/m 11,9 C 12,8 C 1,6 km/h (1 Bft) 97,87 %
01.09.2016 03:08 12,8 C 94 % 1019,4 hPa 0,0 l/m 1,5 km/h (1 Bft) S 177 0 min 0,000 mm 0,0 UV-I 0 W/m 11,9 C 12,8 C 3,2 km/h (1 Bft) 97,87 %
01.09.2016 03:10 12,9 C 94 % 1019,5 hPa 0,0 l/m 3,3 km/h (1 Bft) S 177 0 min 0,000 mm 0,0 UV-I 0 W/m 12,0 C 12,9 C 4,8 km/h (1 Bft) 100,00 %
01.09.2016 03:12 12,9 C 94 % 1019,4 hPa 0,0 l/m 2,9 km/h (1 Bft) S 177 0 min 0,000 mm 0,0 UV-I 0 W/m 12,0 C 12,9 C 4,8 km/h (1 Bft) 100,00 %
01.09.2016 03:14 12,9 C 94 % 1019,4 hPa 0,0 l/m 3,0 km/h (1 Bft) S 177 0 min 0,000 mm 0,0 UV-I 0 W/m 12,0 C 12,9 C 4,8 km/h (1 Bft) 100,00 %
01.09.2016 03:16 12,9 C 94 % 1019,5 hPa 0,0 l/m 2,4 km/h (1 Bft) S 177 0 min 0,000 mm 0,0 UV-I 0 W/m 12,0 C 12,9 C 3,2 km/h (1 Bft) 97,87 %
01.09.2016 03:18 12,9 C 93 % 1019,5 hPa 0,0 l/m 1,7 km/h (1 Bft) S 177 0 min 0,000 mm 0,0 UV-I 0 W/m 11,8 C 12,9 C 3,2 km/h (1 Bft) 100,00 %
01.09.2016 03:20 12,8 C 93 % 1019,4 hPa 0,0 l/m 2,1 km/h (1 Bft) S 177 0 min 0,000 mm 0,0 UV-I 0 W/m 11,7 C 12,8 C 3,2 km/h (1 Bft) 100,00 %
01.09.2016 03:22 12,7 C 93 % 1019,4 hPa 0,0 l/m 1,6 km/h (1 Bft) S 177 0 min 0,000 mm 0,0 UV-I 0 W/m 11,6 C 12,7 C 3,2 km/h (1 Bft) 97,87 %
01.09.2016 03:24 12,7 C 93 % 1019,4 hPa 0,0 l/m 0,5 km/h (0 Bft) S 176 0 min 0,000 mm 0,0 UV-I 0 W/m 11,6 C 12,7 C 1,6 km/h (1 Bft) 97,87 %
01.09.2016 03:26 12,6 C 93 % 1019,4 hPa 0,0 l/m 0,6 km/h (0 Bft) S 177 0 min 0,000 mm 0,0 UV-I 0 W/m 11,5 C 12,6 C 1,6 km/h (1 Bft) 100,00 %
01.09.2016 03:28 12,6 C 94 % 1019,4 hPa 0,0 l/m 1,5 km/h (1 Bft) S 177 0 min 0,000 mm 0,0 UV-I 0 W/m 11,7 C 12,6 C 3,2 km/h (1 Bft) 97,87 %
01.09.2016 03:30 12,7 C 94 % 1019,4 hPa 0,0 l/m 1,9 km/h (1 Bft) S 177 0 min 0,000 mm 0,0 UV-I 0 W/m 11,8 C 12,7 C 3,2 km/h (1 Bft) 100,00 %
01.09.2016 03:32 12,8 C 94 % 1019,4 hPa 0,0 l/m 1,9 km/h (1 Bft) S 177 0 min 0,000 mm 0,0 UV-I 0 W/m 11,9 C 12,8 C 3,2 km/h (1 Bft) 100,00 %
01.09.2016 03:34 12,8 C 94 % 1019,4 hPa 0,0 l/m 1,8 km/h (1 Bft) S 177 0 min 0,000 mm 0,0 UV-I 0 W/m 11,9 C 12,8 C 3,2 km/h (1 Bft) 97,87 %
01.09.2016 03:36 12,7 C 93 % 1019,4 hPa 0,0 l/m 1,5 km/h (1 Bft) S 177 0 min 0,000 mm 0,0 UV-I 0 W/m 11,6 C 12,7 C 4,8 km/h (1 Bft) 100,00 %
01.09.2016 03:38 12,7 C 94 % 1019,5 hPa 0,0 l/m 3,5 km/h (1 Bft) S 177 0 min 0,000 mm 0,0 UV-I 0 W/m 11,8 C 12,7 C 4,8 km/h (1 Bft) 95,74 %
01.09.2016 03:40 12,8 C 94 % 1019,5 hPa 0,0 l/m 2,5 km/h (1 Bft) S 177 0 min 0,000 mm 0,0 UV-I 0 W/m 11,9 C 12,8 C 3,2 km/h (1 Bft) 100,00 %
01.09.2016 03:42 12,8 C 93 % 1019,4 hPa 0,0 l/m 1,2 km/h (1 Bft) S 177 0 min 0,000 mm 0,0 UV-I 0 W/m 11,7 C 12,8 C 3,2 km/h (1 Bft) 97,92 %
01.09.2016 03:44 12,7 C 93 % 1019,4 hPa 0,0 l/m 2,0 km/h (1 Bft) S 176 0 min 0,000 mm 0,0 UV-I 0 W/m 11,6 C 12,7 C 3,2 km/h (1 Bft) 100,00 %
01.09.2016 03:46 12,7 C 93 % 1019,4 hPa 0,0 l/m 2,6 km/h (1 Bft) S 177 0 min 0,000 mm 0,0 UV-I 0 W/m 11,6 C 12,7 C 3,2 km/h (1 Bft) 100,00 %
01.09.2016 03:48 12,7 C 93 % 1019,4 hPa 0,0 l/m 1,8 km/h (1 Bft) S 177 0 min 0,000 mm 0,0 UV-I 0 W/m 11,6 C 12,7 C 3,2 km/h (1 Bft) 97,87 %
01.09.2016 03:50 12,7 C 93 % 1019,4 hPa 0,0 l/m 2,7 km/h (1 Bft) S 177 0 min 0,000 mm 0,0 UV-I 0 W/m 11,6 C 12,7 C 4,8 km/h (1 Bft) 100,00 %
01.09.2016 03:52 12,7 C 93 % 1019,4 hPa 0,0 l/m 2,0 km/h (1 Bft) S 177 0 min 0,000 mm 0,0 UV-I 0 W/m 11,6 C 12,7 C 3,2 km/h (1 Bft) 97,92 %
01.09.2016 03:54 12,7 C 93 % 1019,4 hPa 0,0 l/m 1,0 km/h (0 Bft) S 177 0 min 0,000 mm 0,0 UV-I 0 W/m 11,6 C 12,7 C 3,2 km/h (1 Bft) 97,87 %
01.09.2016 03:56 12,6 C 93 % 1019,4 hPa 0,0 l/m 0,8 km/h (0 Bft) S 177 0 min 0,000 mm 0,0 UV-I 0 W/m 11,5 C 12,6 C 3,2 km/h (1 Bft) 96,00 %
01.09.2016 03:58 12,6 C 93 % 1019,4 hPa 0,0 l/m 1,3 km/h (1 Bft) S 177 0 min 0,000 mm 0,0 UV-I 0 W/m 11,5 C 12,6 C 1,6 km/h (1 Bft) 97,87 %
01.09.2016 04:00 12,6 C 93 % 1019,4 hPa 0,0 l/m 1,3 km/h (1 Bft) S 177 0 min 0,000 mm 0,0 UV-I 0 W/m 11,5 C 12,6 C 3,2 km/h (1 Bft) 97,87 %
01.09.2016 04:02 12,6 C 93 % 1019,4 hPa 0,0 l/m 1,3 km/h (1 Bft) S 177 0 min 0,000 mm 0,0 UV-I 0 W/m 11,5 C 12,6 C 3,2 km/h (1 Bft) 100,00 %
01.09.2016 04:04 12,6 C 93 % 1019,5 hPa 0,0 l/m 1,6 km/h (1 Bft) S 177 0 min 0,000 mm 0,0 UV-I 0 W/m 11,5 C 12,6 C 3,2 km/h (1 Bft) 97,87 %
01.09.2016 04:06 12,6 C 93 % 1019,4 hPa 0,0 l/m 1,0 km/h (0 Bft) S 177 0 min 0,000 mm 0,0 UV-I 0 W/m 11,5 C 12,6 C 1,6 km/h (1 Bft) 97,87 %
01.09.2016 04:08 12,6 C 93 % 1019,4 hPa 0,0 l/m 1,5 km/h (1 Bft) S 177 0 min 0,000 mm 0,0 UV-I 0 W/m 11,5 C 12,6 C 3,2 km/h (1 Bft) 100,00 %
01.09.2016 04:10 12,6 C 93 % 1019,4 hPa 0,0 l/m 2,0 km/h (1 Bft) S 177 0 min 0,000 mm 0,0 UV-I 0 W/m 11,5 C 12,6 C 3,2 km/h (1 Bft) 98,36 %
01.09.2016 04:12 12,5 C 93 % 1019,5 hPa 0,0 l/m 0,6 km/h (0 Bft) S 177 0 min 0,000 mm 0,0 UV-I 0 W/m 11,4 C 12,5 C 1,6 km/h (1 Bft) 96,00 %
01.09.2016 04:14 12,4 C 93 % 1019,5 hPa 0,0 l/m 0,6 km/h (0 Bft) S 177 0 min 0,000 mm 0,0 UV-I 0 W/m 11,3 C 12,4 C 1,6 km/h (1 Bft) 100,00 %
01.09.2016 04:16 12,4 C 93 % 1019,5 hPa 0,0 l/m 0,3 km/h (0 Bft) S 177 0 min 0,000 mm 0,0 UV-I 0 W/m 11,3 C 12,4 C 1,6 km/h (1 Bft) 98,00 %
01.09.2016 04:18 12,5 C 93 % 1019,5 hPa 0,0 l/m 0,0 km/h (0 Bft) S 177 0 min 0,000 mm 0,0 UV-I 0 W/m 11,4 C 12,5 C 0,0 km/h (0 Bft) 100,00 %
01.09.2016 04:20 12,6 C 94 % 1019,5 hPa 0,0 l/m 1,2 km/h (1 Bft) S 177 0 min 0,000 mm 0,0 UV-I 0 W/m 11,7 C 12,6 C 3,2 km/h (1 Bft) 97,87 %
01.09.2016 04:22 12,7 C 94 % 1019,5 hPa 0,0 l/m 1,2 km/h (1 Bft) S 177 0 min 0,000 mm 0,0 UV-I 0 W/m 11,8 C 12,7 C 1,6 km/h (1 Bft) 100,00 %
01.09.2016 04:24 12,8 C 94 % 1019,5 hPa 0,0 l/m 1,2 km/h (1 Bft) S 177 0 min 0,000 mm 0,0 UV-I 0 W/m 11,9 C 12,8 C 1,6 km/h (1 Bft) 100,00 %
01.09.2016 04:26 12,8 C 94 % 1019,5 hPa 0,0 l/m 1,6 km/h (1 Bft) S 176 0 min 0,000 mm 0,0 UV-I 0 W/m 11,9 C 12,8 C 1,6 km/h (1 Bft) 97,87 %
01.09.2016 04:28 12,8 C 94 % 1019,5 hPa 0,0 l/m 1,4 km/h (1 Bft) S 177 0 min 0,000 mm 0,0 UV-I 0 W/m 11,9 C 12,8 C 3,2 km/h (1 Bft) 100,00 %
01.09.2016 04:30 12,7 C 93 % 1019,5 hPa 0,0 l/m 0,7 km/h (0 Bft) S 177 0 min 0,000 mm 0,0 UV-I 0 W/m 11,6 C 12,7 C 1,6 km/h (1 Bft) 97,87 %
01.09.2016 04:32 12,6 C 93 % 1019,5 hPa 0,0 l/m 0,7 km/h (0 Bft) S 177 0 min 0,000 mm 0,0 UV-I 0 W/m 11,5 C 12,6 C 1,6 km/h (1 Bft) 100,00 %
01.09.2016 04:34 12,6 C 93 % 1019,5 hPa 0,0 l/m 0,0 km/h (0 Bft) S 177 0 min 0,000 mm 0,0 UV-I 0 W/m 11,5 C 12,6 C 1,6 km/h (1 Bft) 97,87 %
01.09.2016 04:36 12,6 C 94 % 1019,5 hPa 0,0 l/m 0,7 km/h (0 Bft) S 177 0 min 0,000 mm 0,0 UV-I 0 W/m 11,7 C 12,6 C 1,6 km/h (1 Bft) 100,00 %
01.09.2016 04:38 12,4 C 93 % 1019,5 hPa 0,0 l/m 1,6 km/h (1 Bft) S 177 0 min 0,000 mm 0,0 UV-I 0 W/m 11,3 C 12,4 C 1,6 km/h (1 Bft) 100,00 %
01.09.2016 04:40 12,4 C 93 % 1019,5 hPa 0,0 l/m 0,2 km/h (0 Bft) S 177 0 min 0,000 mm 0,0 UV-I 0 W/m 11,3 C 12,4 C 1,6 km/h (1 Bft) 93,62 %
01.09.2016 04:42 12,4 C 93 % 1019,5 hPa 0,0 l/m 0,0 km/h (0 Bft) S 177 0 min 0,000 mm 0,0 UV-I 0 W/m 11,3 C 12,4 C 0,0 km/h (0 Bft) 97,87 %
01.09.2016 04:44 12,4 C 94 % 1019,5 hPa 0,0 l/m 0,0 km/h (0 Bft) S 177 0 min 0,000 mm 0,0 UV-I 0 W/m 11,5 C 12,4 C 0,0 km/h (0 Bft) 95,74 %
01.09.2016 04:46 12,4 C 94 % 1019,5 hPa 0,0 l/m 0,0 km/h (0 Bft) S 177 0 min 0,000 mm 0,0 UV-I 0 W/m 11,5 C 12,4 C 0,0 km/h (0 Bft) 97,14 %
01.09.2016 04:48 12,4 C 94 % 1019,5 hPa 0,0 l/m 0,0 km/h (0 Bft) S 177 0 min 0,000 mm 0,0 UV-I 0 W/m 11,5 C 12,4 C 0,0 km/h (0 Bft) 95,74 %
01.09.2016 04:50 12,4 C 94 % 1019,5 hPa 0,0 l/m 0,0 km/h (0 Bft) S 177 0 min 0,000 mm 0,0 UV-I 0 W/m 11,5 C 12,4 C 0,0 km/h (0 Bft) 95,83 %
01.09.2016 04:52 12,4 C 94 % 1019,5 hPa 0,0 l/m 0,0 km/h (0 Bft) S 177 0 min 0,000 mm 0,0 UV-I 0 W/m 11,5 C 12,4 C 1,6 km/h (1 Bft) 95,74 %
01.09.2016 04:54 12,4 C 94 % 1019,6 hPa 0,0 l/m 0,9 km/h (0 Bft) S 176 0 min 0,000 mm 0,0 UV-I 0 W/m 11,5 C 12,4 C 3,2 km/h (1 Bft) 97,87 %
01.09.2016 04:56 12,3 C 94 % 1019,5 hPa 0,0 l/m 0,6 km/h (0 Bft) S 177 0 min 0,000 mm 0,0 UV-I 0 W/m 11,4 C 12,3 C 1,6 km/h (1 Bft) 97,87 %
01.09.2016 04:58 12,3 C 94 % 1019,6 hPa 0,0 l/m 0,0 km/h (0 Bft) S 176 0 min 0,000 mm 0,0 UV-I 0 W/m 11,4 C 12,3 C 1,6 km/h (1 Bft) 95,74 %
01.09.2016 05:00 12,3 C 94 % 1019,6 hPa 0,0 l/m 1,0 km/h (0 Bft) S 177 0 min 0,000 mm 0,0 UV-I 0 W/m 11,4 C 12,3 C 3,2 km/h (1 Bft) 95,74 %
01.09.2016 05:02 12,3 C 94 % 1019,6 hPa 0,0 l/m 1,6 km/h (1 Bft) S 176 0 min 0,000 mm 0,0 UV-I 0 W/m 11,4 C 12,3 C 3,2 km/h (1 Bft) 97,87 %
01.09.2016 05:04 12,2 C 94 % 1019,6 hPa 0,0 l/m 0,7 km/h (0 Bft) S 177 0 min 0,000 mm 0,0 UV-I 0 W/m 11,3 C 12,2 C 1,6 km/h (1 Bft) 97,87 %
01.09.2016 05:06 12,2 C 94 % 1019,6 hPa 0,0 l/m 0,3 km/h (0 Bft) S 176 0 min 0,000 mm 0,0 UV-I 0 W/m 11,3 C 12,2 C 1,6 km/h (1 Bft) 97,87 %
01.09.2016 05:08 12,2 C 94 % 1019,6 hPa 0,0 l/m 0,1 km/h (0 Bft) S 177 0 min 0,000 mm 0,0 UV-I 0 W/m 11,3 C 12,2 C 1,6 km/h (1 Bft) 97,87 %
01.09.2016 05:10 12,2 C 94 % 1019,6 hPa 0,0 l/m 0,1 km/h (0 Bft) S 176 0 min 0,000 mm 0,0 UV-I 0 W/m 11,3 C 12,2 C 1,6 km/h (1 Bft) 97,87 %
01.09.2016 05:12 12,1 C 94 % 1019,6 hPa 0,0 l/m 0,0 km/h (0 Bft) S 177 0 min 0,000 mm 0,0 UV-I 0 W/m 11,2 C 12,1 C 0,0 km/h (0 Bft) 97,87 %
01.09.2016 05:14 12,1 C 94 % 1019,6 hPa 0,0 l/m 0,0 km/h (0 Bft) S 177 0 min 0,000 mm 0,0 UV-I 0 W/m 11,2 C 12,1 C 0,0 km/h (0 Bft) 100,00 %
01.09.2016 05:16 12,1 C 94 % 1019,6 hPa 0,0 l/m 0,0 km/h (0 Bft) S 177 0 min 0,000 mm 0,0 UV-I 0 W/m 11,2 C 12,1 C 0,0 km/h (0 Bft) 97,87 %
01.09.2016 05:18 12,1 C 94 % 1019,6 hPa 0,0 l/m 0,0 km/h (0 Bft) S 177 0 min 0,000 mm 0,0 UV-I 0 W/m 11,2 C 12,1 C 0,0 km/h (0 Bft) 100,00 %
01.09.2016 05:20 12,1 C 94 % 1019,6 hPa 0,0 l/m 1,4 km/h (1 Bft) S 177 0 min 0,000 mm 0,0 UV-I 0 W/m 11,2 C 12,1 C 3,2 km/h (1 Bft) 100,00 %
01.09.2016 05:22 12,2 C 94 % 1019,6 hPa 0,0 l/m 1,6 km/h (1 Bft) S 177 0 min 0,000 mm 0,0 UV-I 0 W/m 11,3 C 12,2 C 3,2 km/h (1 Bft) 98,00 %
01.09.2016 05:24 12,1 C 94 % 1019,6 hPa 0,0 l/m 1,0 km/h (0 Bft) S 176 0 min 0,000 mm 0,0 UV-I 0 W/m 11,2 C 12,1 C 3,2 km/h (1 Bft) 95,74 %
01.09.2016 05:26 12,1 C 94 % 1019,6 hPa 0,0 l/m 1,0 km/h (0 Bft) S 177 0 min 0,000 mm 0,0 UV-I 0 W/m 11,2 C 12,1 C 3,2 km/h (1 Bft) 100,00 %
01.09.2016 05:28 11,9 C 94 % 1019,5 hPa 0,0 l/m 0,1 km/h (0 Bft) S 177 0 min 0,000 mm 0,0 UV-I 0 W/m 11,0 C 11,9 C 1,6 km/h (1 Bft) 100,00 %
01.09.2016 05:30 11,8 C 94 % 1019,6 hPa 0,0 l/m 0,2 km/h (0 Bft) S 177 0 min 0,000 mm 0,0 UV-I 0 W/m 10,9 C 11,8 C 1,6 km/h (1 Bft) 100,00 %
01.09.2016 05:32 11,9 C 95 % 1019,6 hPa 0,0 l/m 0,5 km/h (0 Bft) S 177 0 min 0,000 mm 0,0 UV-I 0 W/m 11,1 C 11,9 C 1,6 km/h (1 Bft) 100,00 %
01.09.2016 05:34 11,9 C 95 % 1019,6 hPa 0,0 l/m 0,0 km/h (0 Bft) S 177 0 min 0,000 mm 0,0 UV-I 0 W/m 11,1 C 11,9 C 0,0 km/h (0 Bft) 100,00 %
01.09.2016 05:36 12,1 C 95 % 1019,6 hPa 0,0 l/m 0,0 km/h (0 Bft) S 177 0 min 0,000 mm 0,0 UV-I 0 W/m 11,3 C 12,1 C 0,0 km/h (0 Bft) 100,00 %
01.09.2016 05:38 12,1 C 95 % 1019,6 hPa 0,0 l/m 0,0 km/h (0 Bft) S 177 0 min 0,000 mm 0,0 UV-I 0 W/m 11,3 C 12,1 C 0,0 km/h (0 Bft) 97,87 %
01.09.2016 05:40 12,1 C 95 % 1019,7 hPa 0,0 l/m 0,0 km/h (0 Bft) S 177 0 min 0,000 mm 0,0 UV-I 0 W/m 11,3 C 12,1 C 0,0 km/h (0 Bft) 100,00 %
01.09.2016 05:42 12,0 C 95 % 1019,6 hPa 0,0 l/m 0,0 km/h (0 Bft) S 177 0 min 0,000 mm 0,0 UV-I 0 W/m 11,2 C 12,0 C 0,0 km/h (0 Bft) 100,00 %
01.09.2016 05:44 12,0 C 95 % 1019,6 hPa 0,0 l/m 0,0 km/h (0 Bft) S 177 0 min 0,000 mm 0,0 UV-I 0 W/m 11,2 C 12,0 C 0,0 km/h (0 Bft) 100,00 %
01.09.2016 05:46 12,1 C 95 % 1019,7 hPa 0,0 l/m 0,0 km/h (0 Bft) S 177 0 min 0,000 mm 0,0 UV-I 0 W/m 11,3 C 12,1 C 0,0 km/h (0 Bft) 100,00 %
01.09.2016 05:48 12,1 C 95 % 1019,6 hPa 0,0 l/m 0,0 km/h (0 Bft) S 177 0 min 0,000 mm 0,0 UV-I 0 W/m 11,3 C 12,1 C 0,0 km/h (0 Bft) 100,00 %
01.09.2016 05:50 12,1 C 95 % 1019,6 hPa 0,0 l/m 0,0 km/h (0 Bft) S 177 0 min 0,000 mm 0,0 UV-I 0 W/m 11,3 C 12,1 C 0,0 km/h (0 Bft) 100,00 %
01.09.2016 05:52 12,1 C 95 % 1019,6 hPa 0,0 l/m 0,0 km/h (0 Bft) S 177 0 min 0,000 mm 0,0 UV-I 0 W/m 11,3 C 12,1 C 0,0 km/h (0 Bft) 100,00 %
01.09.2016 05:54 12,0 C 95 % 1019,5 hPa 0,0 l/m 0,0 km/h (0 Bft) S 177 0 min 0,000 mm 0,0 UV-I 0 W/m 11,2 C 12,0 C 0,0 km/h (0 Bft) 100,00 %
01.09.2016 05:56 11,9 C 95 % 1019,6 hPa 0,0 l/m 0,0 km/h (0 Bft) S 177 0 min 0,000 mm 0,0 UV-I 0 W/m 11,1 C 11,9 C 0,0 km/h (0 Bft) 97,87 %
01.09.2016 05:58 11,9 C 95 % 1019,6 hPa 0,0 l/m 0,0 km/h (0 Bft) S 177 0 min 0,000 mm 0,0 UV-I 0 W/m 11,1 C 11,9 C 0,0 km/h (0 Bft) 100,00 %
01.09.2016 06:00 11,9 C 95 % 1019,6 hPa 0,0 l/m 0,0 km/h (0 Bft) S 177 0 min 0,000 mm 0,0 UV-I 0 W/m 11,1 C 11,9 C 0,0 km/h (0 Bft) 100,00 %
01.09.2016 06:02 11,9 C 95 % 1019,7 hPa 0,0 l/m 0,0 km/h (0 Bft) S 177 0 min 0,000 mm 0,0 UV-I 0 W/m 11,1 C 11,9 C 0,0 km/h (0 Bft) 97,87 %
01.09.2016 06:04 11,9 C 95 % 1019,7 hPa 0,0 l/m 0,0 km/h (0 Bft) S 177 0 min 0,000 mm 0,0 UV-I 0 W/m 11,1 C 11,9 C 0,0 km/h (0 Bft) 100,00 %
01.09.2016 06:06 11,9 C 96 % 1019,7 hPa 0,0 l/m 0,0 km/h (0 Bft) S 176 0 min 0,000 mm 0,0 UV-I 0 W/m 11,3 C 11,9 C 0,0 km/h (0 Bft) 100,00 %
01.09.2016 06:08 11,9 C 96 % 1019,7 hPa 0,0 l/m 0,0 km/h (0 Bft) S 177 0 min 0,000 mm 0,0 UV-I 0 W/m 11,3 C 11,9 C 0,0 km/h (0 Bft) 100,00 %
01.09.2016 06:10 11,9 C 95 % 1019,7 hPa 0,0 l/m 0,0 km/h (0 Bft) S 177 0 min 0,000 mm 0,0 UV-I 0 W/m 11,1 C 11,9 C 0,0 km/h (0 Bft) 100,00 %
01.09.2016 06:12 11,8 C 95 % 1019,6 hPa 0,0 l/m 0,0 km/h (0 Bft) S 177 0 min 0,000 mm 0,0 UV-I 0 W/m 11,0 C 11,8 C 0,0 km/h (0 Bft) 100,00 %
01.09.2016 06:14 11,8 C 95 % 1019,7 hPa 0,0 l/m 0,0 km/h (0 Bft) S 176 0 min 0,000 mm 0,0 UV-I 0 W/m 11,0 C 11,8 C 0,0 km/h (0 Bft) 97,92 %
01.09.2016 06:16 11,8 C 95 % 1019,7 hPa 0,0 l/m 0,0 km/h (0 Bft) S 177 0 min 0,000 mm 0,0 UV-I 0 W/m 11,0 C 11,8 C 0,0 km/h (0 Bft) 100,00 %
01.09.2016 06:18 11,7 C 95 % 1019,7 hPa 0,0 l/m 0,0 km/h (0 Bft) S 177 0 min 0,000 mm 0,0 UV-I 0 W/m 10,9 C 11,7 C 0,0 km/h (0 Bft) 100,00 %
01.09.2016 06:20 11,7 C 95 % 1019,7 hPa 0,0 l/m 0,0 km/h (0 Bft) S 177 0 min 0,000 mm 0,0 UV-I 3 W/m 10,9 C 11,7 C 0,0 km/h (0 Bft) 100,00 %
01.09.2016 06:22 11,7 C 95 % 1019,8 hPa 0,0 l/m 0,0 km/h (0 Bft) S 177 0 min 0,000 mm 0,0 UV-I 5 W/m 10,9 C 11,7 C 0,0 km/h (0 Bft) 100,00 %
01.09.2016 06:24 11,8 C 95 % 1019,8 hPa 0,0 l/m 0,0 km/h (0 Bft) S 177 0 min 0,000 mm 0,0 UV-I 6 W/m 11,0 C 11,8 C 0,0 km/h (0 Bft) 100,00 %
01.09.2016 06:26 11,8 C 95 % 1019,9 hPa 0,0 l/m 1,0 km/h (0 Bft) S 177 0 min 0,000 mm 0,0 UV-I 8 W/m 11,0 C 11,8 C 3,2 km/h (1 Bft) 100,00 %
01.09.2016 06:28 11,8 C 95 % 1019,8 hPa 0,0 l/m 0,6 km/h (0 Bft) S 177 0 min 0,000 mm 0,0 UV-I 9 W/m 11,0 C 11,8 C 1,6 km/h (1 Bft) 97,87 %
01.09.2016 06:30 11,7 C 95 % 1019,9 hPa 0,0 l/m 0,0 km/h (0 Bft) S 177 0 min 0,000 mm 0,0 UV-I 10 W/m 10,9 C 11,7 C 0,0 km/h (0 Bft) 97,87 %
01.09.2016 06:32 11,7 C 95 % 1019,9 hPa 0,0 l/m 0,0 km/h (0 Bft) S 177 2 min 0,000 mm 0,0 UV-I 11 W/m 10,9 C 11,7 C 0,0 km/h (0 Bft) 97,87 %
01.09.2016 06:34 11,8 C 95 % 1019,9 hPa 0,0 l/m 0,6 km/h (0 Bft) S 177 2 min 0,000 mm 0,0 UV-I 12 W/m 11,0 C 11,8 C 3,2 km/h (1 Bft) 100,00 %
01.09.2016 06:36 11,7 C 95 % 1019,9 hPa 0,0 l/m 2,7 km/h (1 Bft) S 177 0 min 0,000 mm 0,0 UV-I 13 W/m 10,9 C 11,7 C 3,2 km/h (1 Bft) 100,00 %
01.09.2016 06:38 11,7 C 95 % 1019,9 hPa 0,0 l/m 2,4 km/h (1 Bft) S 177 0 min 0,000 mm 0,0 UV-I 14 W/m 10,9 C 11,7 C 3,2 km/h (1 Bft) 100,00 %
01.09.2016 06:40 11,8 C 95 % 1019,9 hPa 0,0 l/m 0,9 km/h (0 Bft) S 177 0 min 0,000 mm 0,0 UV-I 16 W/m 11,0 C 11,8 C 3,2 km/h (1 Bft) 100,00 %
01.09.2016 06:42 11,8 C 95 % 1019,9 hPa 0,0 l/m 0,4 km/h (0 Bft) S 177 0 min 0,000 mm 0,0 UV-I 17 W/m 11,0 C 11,8 C 1,6 km/h (1 Bft) 97,87 %
01.09.2016 06:44 11,7 C 95 % 1019,9 hPa 0,0 l/m 0,2 km/h (0 Bft) S 177 0 min 0,000 mm 0,0 UV-I 18 W/m 10,9 C 11,7 C 1,6 km/h (1 Bft) 97,87 %
01.09.2016 06:46 11,7 C 95 % 1019,9 hPa 0,0 l/m 1,3 km/h (1 Bft) S 177 0 min 0,000 mm 0,0 UV-I 20 W/m 10,9 C 11,7 C 3,2 km/h (1 Bft) 97,87 %
01.09.2016 06:48 11,8 C 95 % 1020,0 hPa 0,0 l/m 2,0 km/h (1 Bft) S 177 0 min 0,000 mm 0,0 UV-I 21 W/m 11,0 C 11,8 C 3,2 km/h (1 Bft) 97,87 %
01.09.2016 06:50 12,0 C 96 % 1019,9 hPa 0,0 l/m 1,6 km/h (1 Bft) S 176 0 min 0,000 mm 0,0 UV-I 21 W/m 11,4 C 12,0 C 3,2 km/h (1 Bft) 98,00 %
01.09.2016 06:52 12,2 C 96 % 1020,0 hPa 0,0 l/m 0,7 km/h (0 Bft) S 177 0 min 0,000 mm 0,0 UV-I 23 W/m 11,6 C 12,2 C 1,6 km/h (1 Bft) 97,92 %
01.09.2016 06:54 12,2 C 96 % 1020,0 hPa 0,0 l/m 0,0 km/h (0 Bft) S 177 0 min 0,000 mm 0,0 UV-I 25 W/m 11,6 C 12,2 C 0,0 km/h (0 Bft) 97,87 %
01.09.2016 06:56 12,3 C 96 % 1020,0 hPa 0,0 l/m 0,0 km/h (0 Bft) S 177 0 min 0,000 mm 0,0 UV-I 26 W/m 11,7 C 12,3 C 0,0 km/h (0 Bft) 96,00 %
01.09.2016 06:58 12,2 C 96 % 1020,0 hPa 0,0 l/m 0,0 km/h (0 Bft) S 177 0 min 0,000 mm 0,0 UV-I 26 W/m 11,6 C 12,2 C 0,0 km/h (0 Bft) 97,87 %
01.09.2016 07:00 12,3 C 96 % 1020,0 hPa 0,0 l/m 0,0 km/h (0 Bft) S 177 0 min 0,000 mm 0,0 UV-I 27 W/m 11,7 C 12,3 C 0,0 km/h (0 Bft) 95,74 %
01.09.2016 07:02 12,3 C 96 % 1020,0 hPa 0,0 l/m 0,0 km/h (0 Bft) S 177 0 min 0,000 mm 0,0 UV-I 30 W/m 11,7 C 12,3 C 0,0 km/h (0 Bft) 97,37 %
01.09.2016 07:04 12,4 C 96 % 1020,0 hPa 0,0 l/m 0,0 km/h (0 Bft) S 177 0 min 0,000 mm 0,0 UV-I 31 W/m 11,8 C 12,4 C 0,0 km/h (0 Bft) 95,74 %
01.09.2016 07:06 12,4 C 96 % 1020,1 hPa 0,0 l/m 0,0 km/h (0 Bft) S 177 0 min 0,000 mm 0,0 UV-I 32 W/m 11,8 C 12,4 C 0,0 km/h (0 Bft) 97,87 %
01.09.2016 07:08 12,4 C 95 % 1020,1 hPa 0,0 l/m 0,0 km/h (0 Bft) S 177 0 min 0,000 mm 0,0 UV-I 33 W/m 11,6 C 12,4 C 0,0 km/h (0 Bft) 97,87 %
01.09.2016 07:10 12,5 C 96 % 1020,1 hPa 0,0 l/m 0,3 km/h (0 Bft) S 177 0 min 0,000 mm 0,0 UV-I 33 W/m 11,9 C 12,5 C 1,6 km/h (1 Bft) 97,87 %
01.09.2016 07:12 12,6 C 96 % 1020,1 hPa 0,0 l/m 0,0 km/h (0 Bft) S 177 0 min 0,000 mm 0,0 UV-I 33 W/m 12,0 C 12,6 C 0,0 km/h (0 Bft) 97,87 %
01.09.2016 07:14 12,7 C 96 % 1020,1 hPa 0,0 l/m 0,9 km/h (0 Bft) S 177 0 min 0,000 mm 0,0 UV-I 35 W/m 12,1 C 12,7 C 3,2 km/h (1 Bft) 98,00 %
01.09.2016 07:16 12,6 C 95 % 1020,1 hPa 0,0 l/m 0,0 km/h (0 Bft) S 177 0 min 0,000 mm 0,0 UV-I 35 W/m 11,8 C 12,6 C 1,6 km/h (1 Bft) 97,87 %
01.09.2016 07:18 12,6 C 95 % 1020,1 hPa 0,0 l/m 0,0 km/h (0 Bft) S 177 0 min 0,000 mm 0,0 UV-I 36 W/m 11,8 C 12,6 C 0,0 km/h (0 Bft) 95,74 %
01.09.2016 07:20 12,6 C 95 % 1020,1 hPa 0,0 l/m 0,0 km/h (0 Bft) S 177 0 min 0,000 mm 0,0 UV-I 39 W/m 11,8 C 12,6 C 0,0 km/h (0 Bft) 95,74 %
01.09.2016 07:22 12,6 C 95 % 1020,1 hPa 0,0 l/m 0,0 km/h (0 Bft) S 177 0 min 0,000 mm 0,0 UV-I 48 W/m 11,8 C 12,6 C 0,0 km/h (0 Bft) 95,74 %
01.09.2016 07:24 12,7 C 96 % 1020,2 hPa 0,0 l/m 0,0 km/h (0 Bft) S 177 0 min 0,000 mm 0,0 UV-I 76 W/m 12,1 C 12,7 C 0,0 km/h (0 Bft) 100,00 %
01.09.2016 07:26 12,8 C 96 % 1020,2 hPa 0,0 l/m 0,3 km/h (0 Bft) S 177 0 min 0,000 mm 0,0 UV-I 86 W/m 12,2 C 12,8 C 3,2 km/h (1 Bft) 100,00 %
01.09.2016 07:28 12,9 C 96 % 1020,2 hPa 0,0 l/m 2,7 km/h (1 Bft) S 177 0 min 0,000 mm 0,0 UV-I 87 W/m 12,3 C 12,9 C 4,8 km/h (1 Bft) 100,00 %
01.09.2016 07:30 13,1 C 96 % 1020,3 hPa 0,0 l/m 0,9 km/h (0 Bft) S 177 0 min 0,000 mm 0,0 UV-I 90 W/m 12,5 C 13,1 C 1,6 km/h (1 Bft) 100,00 %
01.09.2016 07:32 13,1 C 95 % 1020,2 hPa 0,0 l/m 0,0 km/h (0 Bft) S 177 0 min 0,000 mm 0,0 UV-I 90 W/m 12,3 C 13,1 C 0,0 km/h (0 Bft) 100,00 %
01.09.2016 07:34 13,2 C 95 % 1020,2 hPa 0,0 l/m 0,0 km/h (0 Bft) S 177 0 min 0,000 mm 0,0 UV-I 93 W/m 12,4 C 13,2 C 0,0 km/h (0 Bft) 100,00 %
01.09.2016 07:36 13,3 C 95 % 1020,3 hPa 0,0 l/m 0,4 km/h (0 Bft) S 177 0 min 0,000 mm 0,0 UV-I 98 W/m 12,5 C 13,3 C 3,2 km/h (1 Bft) 100,00 %
01.09.2016 07:38 13,4 C 96 % 1020,3 hPa 0,0 l/m 0,4 km/h (0 Bft) S 177 0 min 0,000 mm 0,0 UV-I 102 W/m 12,8 C 13,4 C 1,6 km/h (1 Bft) 100,00 %
01.09.2016 07:40 13,6 C 95 % 1020,3 hPa 0,0 l/m 0,0 km/h (0 Bft) S 177 0 min 0,000 mm 0,0 UV-I 105 W/m 12,8 C 13,6 C 0,0 km/h (0 Bft) 97,87 %
01.09.2016 07:42 13,7 C 95 % 1020,3 hPa 0,0 l/m 0,0 km/h (0 Bft) S 177 0 min 0,000 mm 0,0 UV-I 108 W/m 12,9 C 13,7 C 1,6 km/h (1 Bft) 100,00 %
01.09.2016 07:44 13,9 C 95 % 1020,3 hPa 0,0 l/m 0,0 km/h (0 Bft) S 177 0 min 0,000 mm 0,0 UV-I 112 W/m 13,1 C 13,9 C 0,0 km/h (0 Bft) 100,00 %
01.09.2016 07:46 14,0 C 95 % 1020,4 hPa 0,0 l/m 0,0 km/h (0 Bft) S 177 0 min 0,000 mm 0,0 UV-I 119 W/m 13,2 C 14,0 C 0,0 km/h (0 Bft) 100,00 %
01.09.2016 07:48 14,1 C 95 % 1020,4 hPa 0,0 l/m 0,8 km/h (0 Bft) S 177 2 min 0,000 mm 0,0 UV-I 133 W/m 13,3 C 14,1 C 3,2 km/h (1 Bft) 100,00 %
01.09.2016 07:50 14,2 C 94 % 1020,5 hPa 0,0 l/m 1,9 km/h (1 Bft) S 177 2 min 0,000 mm 0,0 UV-I 137 W/m 13,2 C 14,2 C 3,2 km/h (1 Bft) 97,87 %
01.09.2016 07:52 14,1 C 94 % 1020,5 hPa 0,0 l/m 1,8 km/h (1 Bft) S 177 2 min 0,000 mm 0,0 UV-I 140 W/m 13,1 C 14,1 C 3,2 km/h (1 Bft) 97,37 %
01.09.2016 07:54 14,1 C 93 % 1020,4 hPa 0,0 l/m 1,3 km/h (1 Bft) S 177 2 min 0,000 mm 0,0 UV-I 142 W/m 13,0 C 14,1 C 3,2 km/h (1 Bft) 100,00 %
01.09.2016 07:56 14,1 C 93 % 1020,5 hPa 0,0 l/m 0,6 km/h (0 Bft) S 177 2 min 0,000 mm 0,0 UV-I 148 W/m 13,0 C 14,1 C 1,6 km/h (1 Bft) 100,00 %
01.09.2016 07:58 14,1 C 94 % 1020,4 hPa 0,0 l/m 0,7 km/h (0 Bft) S 177 2 min 0,000 mm 0,0 UV-I 152 W/m 13,1 C 14,1 C 1,6 km/h (1 Bft) 97,87 %
01.09.2016 08:00 14,2 C 94 % 1020,5 hPa 0,0 l/m 0,0 km/h (0 Bft) S 177 2 min 0,051 mm 0,0 UV-I 157 W/m 13,2 C 14,2 C 1,6 km/h (1 Bft) 100,00 %
01.09.2016 08:02 14,3 C 94 % 1020,5 hPa 0,0 l/m 0,6 km/h (0 Bft) S 177 2 min 0,000 mm 0,0 UV-I 158 W/m 13,3 C 14,3 C 1,6 km/h (1 Bft) 98,00 %
01.09.2016 08:04 14,6 C 94 % 1020,5 hPa 0,0 l/m 0,3 km/h (0 Bft) S 177 2 min 0,000 mm 0,0 UV-I 156 W/m 13,6 C 14,6 C 1,6 km/h (1 Bft) 100,00 %
01.09.2016 08:06 14,8 C 93 % 1020,5 hPa 0,0 l/m 2,0 km/h (1 Bft) S 177 2 min 0,000 mm 0,0 UV-I 159 W/m 13,7 C 14,8 C 3,2 km/h (1 Bft) 97,87 %
01.09.2016 08:08 14,9 C 93 % 1020,5 hPa 0,0 l/m 0,5 km/h (0 Bft) S 177 2 min 0,000 mm 0,0 UV-I 161 W/m 13,8 C 14,9 C 1,6 km/h (1 Bft) 95,74 %
01.09.2016 08:10 15,2 C 93 % 1020,4 hPa 0,0 l/m 1,4 km/h (1 Bft) S 177 2 min 0,000 mm 0,2 UV-I 161 W/m 14,1 C 15,2 C 3,2 km/h (1 Bft) 100,00 %
01.09.2016 08:12 15,3 C 92 % 1020,4 hPa 0,0 l/m 1,5 km/h (1 Bft) S 177 2 min 0,000 mm 0,5 UV-I 165 W/m 14,0 C 15,3 C 3,2 km/h (1 Bft) 100,00 %
01.09.2016 08:14 15,4 C 92 % 1020,5 hPa 0,0 l/m 1,1 km/h (1 Bft) S 177 2 min 0,000 mm 0,5 UV-I 168 W/m 14,1 C 15,4 C 3,2 km/h (1 Bft) 100,00 %
01.09.2016 08:16 15,5 C 92 % 1020,5 hPa 0,0 l/m 1,4 km/h (1 Bft) S 177 2 min 0,000 mm 0,5 UV-I 174 W/m 14,2 C 15,5 C 3,2 km/h (1 Bft) 97,87 %
01.09.2016 08:18 15,6 C 92 % 1020,5 hPa 0,0 l/m 2,1 km/h (1 Bft) S 177 2 min 0,000 mm 0,5 UV-I 177 W/m 14,3 C 15,6 C 3,2 km/h (1 Bft) 100,00 %
01.09.2016 08:20 15,7 C 91 % 1020,5 hPa 0,0 l/m 2,5 km/h (1 Bft) S 177 0 min 0,000 mm 0,6 UV-I 174 W/m 14,2 C 15,7 C 4,8 km/h (1 Bft) 95,74 %
01.09.2016 08:22 15,7 C 91 % 1020,5 hPa 0,0 l/m 2,2 km/h (1 Bft) S 177 0 min 0,000 mm 0,6 UV-I 174 W/m 14,2 C 15,7 C 3,2 km/h (1 Bft) 97,87 %
01.09.2016 08:24 15,9 C 91 % 1020,5 hPa 0,0 l/m 2,0 km/h (1 Bft) S 177 0 min 0,000 mm 0,6 UV-I 172 W/m 14,4 C 15,9 C 3,2 km/h (1 Bft) 100,00 %
01.09.2016 08:26 15,9 C 91 % 1020,5 hPa 0,0 l/m 1,2 km/h (1 Bft) S 177 0 min 0,000 mm 0,6 UV-I 172 W/m 14,4 C 15,9 C 3,2 km/h (1 Bft) 100,00 %
01.09.2016 08:28 16,1 C 90 % 1020,4 hPa 0,0 l/m 2,4 km/h (1 Bft) S 177 0 min 0,000 mm 0,7 UV-I 177 W/m 14,5 C 16,1 C 4,8 km/h (1 Bft) 100,00 %
01.09.2016 08:30 16,1 C 90 % 1020,5 hPa 0,0 l/m 3,5 km/h (1 Bft) SW 221 0 min 0,000 mm 0,7 UV-I 182 W/m 14,5 C 16,1 C 4,8 km/h (1 Bft) 97,37 %
01.09.2016 08:32 16,2 C 90 % 1020,5 hPa 0,0 l/m 2,3 km/h (1 Bft) SW 221 0 min 0,000 mm 0,7 UV-I 192 W/m 14,6 C 16,2 C 4,8 km/h (1 Bft) 100,00 %
01.09.2016 08:34 16,2 C 90 % 1020,5 hPa 0,0 l/m 2,1 km/h (1 Bft) SW 221 2 min 0,000 mm 0,7 UV-I 202 W/m 14,6 C 16,2 C 3,2 km/h (1 Bft) 100,00 %
01.09.2016 08:36 16,3 C 90 % 1020,5 hPa 0,0 l/m 1,9 km/h (1 Bft) SW 221 2 min 0,000 mm 0,8 UV-I 215 W/m 14,7 C 16,3 C 3,2 km/h (1 Bft) 100,00 %
01.09.2016 08:38 16,3 C 90 % 1020,5 hPa 0,0 l/m 4,0 km/h (1 Bft) S-SW 199 2 min 0,000 mm 0,8 UV-I 229 W/m 14,7 C 16,3 C 6,4 km/h (2 Bft) 100,00 %
01.09.2016 08:40 16,2 C 90 % 1020,5 hPa 0,0 l/m 4,2 km/h (1 Bft) S-SW 194 2 min 0,000 mm 0,8 UV-I 231 W/m 14,6 C 16,2 C 6,4 km/h (2 Bft) 97,87 %
01.09.2016 08:42 16,2 C 90 % 1020,5 hPa 0,0 l/m 2,3 km/h (1 Bft) S-SW 195 2 min 0,000 mm 0,8 UV-I 241 W/m 14,6 C 16,2 C 4,8 km/h (1 Bft) 100,00 %
01.09.2016 08:44 16,2 C 91 % 1020,5 hPa 0,0 l/m 1,8 km/h (1 Bft) S-SW 195 2 min 0,000 mm 0,9 UV-I 258 W/m 14,7 C 16,2 C 3,2 km/h (1 Bft) 100,00 %
01.09.2016 08:46 16,3 C 90 % 1020,5 hPa 0,0 l/m 1,8 km/h (1 Bft) S-SW 195 2 min 0,000 mm 0,9 UV-I 269 W/m 14,7 C 16,3 C 3,2 km/h (1 Bft) 100,00 %
01.09.2016 08:48 16,3 C 90 % 1020,5 hPa 0,0 l/m 1,8 km/h (1 Bft) S-SW 195 2 min 0,000 mm 0,9 UV-I 286 W/m 14,7 C 16,3 C 3,2 km/h (1 Bft) 95,74 %
01.09.2016 08:50 16,4 C 90 % 1020,5 hPa 0,0 l/m 1,0 km/h (0 Bft) S 183 2 min 0,000 mm 1,0 UV-I 313 W/m 14,8 C 16,4 C 1,6 km/h (1 Bft) 97,87 %
01.09.2016 08:52 16,5 C 89 % 1020,6 hPa 0,0 l/m 2,2 km/h (1 Bft) S 181 2 min 0,000 mm 1,0 UV-I 314 W/m 14,7 C 16,5 C 4,8 km/h (1 Bft) 100,00 %
01.09.2016 08:54 16,7 C 90 % 1020,5 hPa 0,0 l/m 1,8 km/h (1 Bft) S 184 2 min 0,000 mm 1,0 UV-I 291 W/m 15,0 C 16,7 C 3,2 km/h (1 Bft) 95,83 %
01.09.2016 08:56 16,8 C 89 % 1020,6 hPa 0,0 l/m 3,6 km/h (1 Bft) SW 221 2 min 0,000 mm 1,0 UV-I 274 W/m 15,0 C 16,8 C 4,8 km/h (1 Bft) 97,87 %
01.09.2016 08:58 16,9 C 88 % 1020,6 hPa 0,0 l/m 2,7 km/h (1 Bft) SW 221 2 min 0,000 mm 1,0 UV-I 307 W/m 14,9 C 16,9 C 4,8 km/h (1 Bft) 97,87 %
01.09.2016 09:00 16,8 C 88 % 1020,6 hPa 0,0 l/m 1,7 km/h (1 Bft) SW 221 0 min 0,127 mm 1,0 UV-I 213 W/m 14,8 C 16,8 C 4,8 km/h (1 Bft) 97,37 %
01.09.2016 09:02 16,8 C 88 % 1020,7 hPa 0,0 l/m 3,4 km/h (1 Bft) SW 221 0 min 0,000 mm 0,9 UV-I 193 W/m 14,8 C 16,8 C 6,4 km/h (2 Bft) 93,62 %
01.09.2016 09:04 16,8 C 88 % 1020,7 hPa 0,0 l/m 1,5 km/h (1 Bft) S-SW 211 0 min 0,000 mm 1,0 UV-I 214 W/m 14,8 C 16,8 C 3,2 km/h (1 Bft) 93,62 %
01.09.2016 09:06 16,8 C 89 % 1020,7 hPa 0,0 l/m 0,7 km/h (0 Bft) S-SW 211 0 min 0,000 mm 1,0 UV-I 199 W/m 15,0 C 16,8 C 3,2 km/h (1 Bft) 97,87 %
01.09.2016 09:08 16,8 C 89 % 1020,7 hPa 0,0 l/m 0,5 km/h (0 Bft) S-SW 211 0 min 0,000 mm 0,9 UV-I 165 W/m 15,0 C 16,8 C 1,6 km/h (1 Bft) 97,87 %
01.09.2016 09:10 16,8 C 88 % 1020,7 hPa 0,0 l/m 0,0 km/h (0 Bft) S-SW 202 0 min 0,000 mm 1,0 UV-I 168 W/m 14,8 C 16,8 C 1,6 km/h (1 Bft) 99,12 %
01.09.2016 09:12 16,9 C 87 % 1020,7 hPa 0,0 l/m 0,1 km/h (0 Bft) S-SW 211 0 min 0,000 mm 1,0 UV-I 170 W/m 14,7 C 16,9 C 1,6 km/h (1 Bft) 98,04 %
01.09.2016 09:14 16,9 C 87 % 1020,7 hPa 0,0 l/m 0,7 km/h (0 Bft) S-SW 211 0 min 0,000 mm 1,1 UV-I 202 W/m 14,7 C 16,9 C 3,2 km/h (1 Bft) 94,29 %
01.09.2016 09:16 17,0 C 86 % 1020,7 hPa 0,0 l/m 0,5 km/h (0 Bft) S-SW 211 0 min 0,000 mm 1,1 UV-I 199 W/m 14,6 C 17,0 C 1,6 km/h (1 Bft) 95,74 %
01.09.2016 09:18 17,0 C 87 % 1020,7 hPa 0,0 l/m 0,7 km/h (0 Bft) S-SW 211 0 min 0,000 mm 1,2 UV-I 228 W/m 14,8 C 17,0 C 1,6 km/h (1 Bft) 95,83 %
01.09.2016 09:20 17,1 C 87 % 1020,7 hPa 0,0 l/m 0,6 km/h (0 Bft) S-SW 211 0 min 0,000 mm 1,2 UV-I 204 W/m 14,9 C 17,1 C 1,6 km/h (1 Bft) 97,87 %
01.09.2016 09:22 17,1 C 86 % 1020,7 hPa 0,0 l/m 0,9 km/h (0 Bft) S-SW 211 0 min 0,000 mm 1,1 UV-I 183 W/m 14,7 C 17,1 C 3,2 km/h (1 Bft) 95,74 %
01.09.2016 09:24 17,1 C 87 % 1020,7 hPa 0,0 l/m 1,0 km/h (0 Bft) S-SW 211 0 min 0,000 mm 1,2 UV-I 155 W/m 14,9 C 17,1 C 3,2 km/h (1 Bft) 95,74 %
01.09.2016 09:25 17,0 C 86 % 1020,8 hPa 0,0 l/m 1,6 km/h (1 Bft) S-SW 202 0 min 0,000 mm 1,2 UV-I 164 W/m 14,6 C 17,0 C 3,2 km/h (1 Bft) 98,25 %
01.09.2016 09:28 17,0 C 87 % 1020,8 hPa 0,0 l/m 0,2 km/h (0 Bft) S-SW 211 0 min 0,000 mm 1,2 UV-I 162 W/m 14,8 C 17,0 C 1,6 km/h (1 Bft) 99,03 %
01.09.2016 09:30 17,0 C 86 % 1020,8 hPa 0,0 l/m 0,9 km/h (0 Bft) S-SW 211 0 min 0,000 mm 1,2 UV-I 167 W/m 14,6 C 17,0 C 1,6 km/h (1 Bft) 97,87 %
01.09.2016 09:32 17,0 C 85 % 1020,8 hPa 0,0 l/m 0,0 km/h (0 Bft) S-SW 211 0 min 0,000 mm 1,3 UV-I 202 W/m 14,5 C 17,0 C 1,6 km/h (1 Bft) 100,00 %
01.09.2016 09:34 17,0 C 86 % 1020,8 hPa 0,0 l/m 0,1 km/h (0 Bft) S-SW 211 0 min 0,000 mm 1,3 UV-I 223 W/m 14,6 C 17,0 C 1,6 km/h (1 Bft) 100,00 %
01.09.2016 09:36 17,1 C 86 % 1020,8 hPa 0,0 l/m 0,0 km/h (0 Bft) S-SW 211 0 min 0,000 mm 1,3 UV-I 195 W/m 14,7 C 17,1 C 0,0 km/h (0 Bft) 100,00 %
01.09.2016 09:38 17,1 C 85 % 1020,8 hPa 0,0 l/m 1,0 km/h (0 Bft) S-SW 211 0 min 0,000 mm 1,4 UV-I 219 W/m 14,6 C 17,1 C 3,2 km/h (1 Bft) 100,00 %
01.09.2016 09:40 17,1 C 84 % 1020,9 hPa 0,0 l/m 0,5 km/h (0 Bft) S-SW 211 0 min 0,000 mm 1,5 UV-I 258 W/m 14,4 C 17,1 C 1,6 km/h (1 Bft) 98,39 %
01.09.2016 09:42 17,2 C 84 % 1020,9 hPa 0,0 l/m 2,7 km/h (1 Bft) S-SW 211 0 min 0,000 mm 1,4 UV-I 233 W/m 14,5 C 17,2 C 4,8 km/h (1 Bft) 100,00 %
01.09.2016 09:44 17,2 C 83 % 1020,9 hPa 0,0 l/m 1,3 km/h (1 Bft) S-SW 211 0 min 0,000 mm 1,5 UV-I 232 W/m 14,3 C 17,2 C 3,2 km/h (1 Bft) 100,00 %
01.09.2016 09:46 17,3 C 84 % 1020,9 hPa 0,0 l/m 2,9 km/h (1 Bft) S-SW 211 0 min 0,000 mm 1,6 UV-I 282 W/m 14,6 C 17,3 C 4,8 km/h (1 Bft) 100,00 %
01.09.2016 09:48 17,3 C 82 % 1021,0 hPa 0,0 l/m 2,9 km/h (1 Bft) S-SW 211 0 min 0,000 mm 1,5 UV-I 288 W/m 14,2 C 17,3 C 4,8 km/h (1 Bft) 97,96 %
01.09.2016 09:50 17,4 C 83 % 1021,0 hPa 0,0 l/m 2,1 km/h (1 Bft) SW 220 0 min 0,000 mm 1,4 UV-I 238 W/m 14,5 C 17,4 C 3,2 km/h (1 Bft) 97,87 %
01.09.2016 09:52 17,4 C 83 % 1021,0 hPa 0,0 l/m 0,5 km/h (0 Bft) SW 220 0 min 0,000 mm 1,4 UV-I 250 W/m 14,5 C 17,4 C 1,6 km/h (1 Bft) 97,87 %
01.09.2016 09:54 17,5 C 84 % 1021,0 hPa 0,0 l/m 0,6 km/h (0 Bft) SW 220 0 min 0,000 mm 1,4 UV-I 251 W/m 14,8 C 17,5 C 3,2 km/h (1 Bft) 97,87 %
01.09.2016 09:56 17,6 C 82 % 1021,0 hPa 0,0 l/m 1,6 km/h (1 Bft) SW 220 0 min 0,000 mm 1,5 UV-I 257 W/m 14,5 C 17,6 C 3,2 km/h (1 Bft) 93,62 %
01.09.2016 09:58 17,7 C 82 % 1021,0 hPa 0,0 l/m 2,7 km/h (1 Bft) W 269 0 min 0,000 mm 1,6 UV-I 282 W/m 14,6 C 17,7 C 6,4 km/h (2 Bft) 100,00 %
01.09.2016 10:00 17,7 C 82 % 1021,0 hPa 0,0 l/m 0,2 km/h (0 Bft) W 269 0 min 0,127 mm 1,7 UV-I 281 W/m 14,6 C 17,7 C 1,6 km/h (1 Bft) 100,00 %
01.09.2016 10:02 17,7 C 83 % 1020,9 hPa 0,0 l/m 1,4 km/h (1 Bft) W 269 0 min 0,000 mm 1,7 UV-I 236 W/m 14,8 C 17,7 C 3,2 km/h (1 Bft) 100,00 %
01.09.2016 10:04 17,8 C 83 % 1020,9 hPa 0,0 l/m 0,2 km/h (0 Bft) W 269 0 min 0,000 mm 1,8 UV-I 248 W/m 14,9 C 17,8 C 1,6 km/h (1 Bft) 100,00 %
01.09.2016 10:06 17,9 C 83 % 1020,9 hPa 0,0 l/m 0,2 km/h (0 Bft) W 269 0 min 0,000 mm 2,0 UV-I 288 W/m 15,0 C 17,9 C 1,6 km/h (1 Bft) 100,00 %
01.09.2016 10:08 18,0 C 82 % 1020,9 hPa 0,0 l/m 1,2 km/h (1 Bft) W 269 0 min 0,000 mm 1,9 UV-I 226 W/m 14,9 C 18,0 C 3,2 km/h (1 Bft) 100,00 %
01.09.2016 10:10 18,0 C 81 % 1020,9 hPa 0,0 l/m 0,1 km/h (0 Bft) W 267 0 min 0,000 mm 2,2 UV-I 234 W/m 14,7 C 18,0 C 1,6 km/h (1 Bft) 100,00 %
01.09.2016 10:12 18,1 C 80 % 1020,9 hPa 0,0 l/m 0,1 km/h (0 Bft) W 267 2 min 0,000 mm 2,3 UV-I 469 W/m 14,6 C 18,1 C 1,6 km/h (1 Bft) 97,87 %
01.09.2016 10:14 18,4 C 79 % 1020,8 hPa 0,0 l/m 1,5 km/h (1 Bft) W-SW 237 2 min 0,000 mm 2,3 UV-I 492 W/m 14,7 C 18,4 C 3,2 km/h (1 Bft) 100,00 %
01.09.2016 10:16 18,6 C 79 % 1020,8 hPa 0,0 l/m 2,4 km/h (1 Bft) S-SO 159 2 min 0,000 mm 2,4 UV-I 484 W/m 14,9 C 18,6 C 6,4 km/h (2 Bft) 100,00 %
01.09.2016 10:18 18,7 C 81 % 1020,9 hPa 0,0 l/m 2,0 km/h (1 Bft) S-SO 159 2 min 0,000 mm 2,5 UV-I 508 W/m 15,4 C 18,7 C 3,2 km/h (1 Bft) 100,00 %
01.09.2016 10:20 18,8 C 79 % 1020,9 hPa 0,0 l/m 1,2 km/h (1 Bft) S-SO 159 2 min 0,000 mm 2,5 UV-I 494 W/m 15,1 C 18,8 C 3,2 km/h (1 Bft) 100,00 %
01.09.2016 10:22 19,1 C 78 % 1020,9 hPa 0,0 l/m 1,3 km/h (1 Bft) S-SO 159 2 min 0,000 mm 2,6 UV-I 507 W/m 15,2 C 19,1 C 3,2 km/h (1 Bft) 100,00 %
01.09.2016 10:24 18,9 C 78 % 1020,9 hPa 0,0 l/m 0,8 km/h (0 Bft) S-SO 160 2 min 0,000 mm 2,7 UV-I 535 W/m 15,0 C 18,9 C 3,2 km/h (1 Bft) 100,00 %
01.09.2016 10:26 19,0 C 79 % 1021,0 hPa 0,0 l/m 1,3 km/h (1 Bft) S-SO 160 2 min 0,000 mm 2,8 UV-I 547 W/m 15,3 C 19,0 C 3,2 km/h (1 Bft) 97,87 %
01.09.2016 10:28 19,1 C 80 % 1021,0 hPa 0,0 l/m 1,7 km/h (1 Bft) S-SO 161 2 min 0,000 mm 2,8 UV-I 554 W/m 15,6 C 19,1 C 6,4 km/h (2 Bft) 97,87 %
01.09.2016 10:30 19,1 C 80 % 1021,0 hPa 0,0 l/m 2,4 km/h (1 Bft) S-SO 165 2 min 0,000 mm 2,9 UV-I 556 W/m 15,6 C 19,1 C 6,4 km/h (2 Bft) 97,87 %
01.09.2016 10:32 19,1 C 78 % 1021,0 hPa 0,0 l/m 3,1 km/h (1 Bft) S-SW 206 2 min 0,000 mm 2,9 UV-I 560 W/m 15,2 C 19,1 C 6,4 km/h (2 Bft) 100,00 %
01.09.2016 10:34 19,2 C 78 % 1021,0 hPa 0,0 l/m 4,8 km/h (1 Bft) S-SW 201 2 min 0,000 mm 3,0 UV-I 563 W/m 15,3 C 19,2 C 8,0 km/h (2 Bft) 100,00 %
01.09.2016 10:36 19,3 C 78 % 1021,1 hPa 0,0 l/m 5,2 km/h (1 Bft) S 186 2 min 0,000 mm 3,0 UV-I 567 W/m 15,4 C 19,3 C 8,0 km/h (2 Bft) 100,00 %
01.09.2016 10:38 19,4 C 78 % 1021,1 hPa 0,0 l/m 6,7 km/h (2 Bft) S-SW 204 2 min 0,000 mm 3,1 UV-I 568 W/m 15,5 C 19,3 C 11,3 km/h (2 Bft) 100,00 %
01.09.2016 10:40 19,5 C 80 % 1021,1 hPa 0,0 l/m 2,3 km/h (1 Bft) S-SW 198 2 min 0,000 mm 3,1 UV-I 568 W/m 16,0 C 19,5 C 8,0 km/h (2 Bft) 100,00 %
01.09.2016 10:42 19,7 C 79 % 1021,1 hPa 0,0 l/m 3,0 km/h (1 Bft) W-SW 247 2 min 0,000 mm 3,1 UV-I 574 W/m 16,0 C 19,7 C 8,0 km/h (2 Bft) 100,00 %
01.09.2016 10:44 19,8 C 76 % 1021,1 hPa 0,0 l/m 6,1 km/h (2 Bft) W 260 2 min 0,000 mm 3,2 UV-I 580 W/m 15,4 C 19,8 C 11,3 km/h (2 Bft) 100,00 %
01.09.2016 10:46 19,9 C 75 % 1021,1 hPa 0,0 l/m 5,8 km/h (2 Bft) W-NW 291 2 min 0,000 mm 3,2 UV-I 583 W/m 15,3 C 19,9 C 9,7 km/h (2 Bft) 97,87 %
01.09.2016 10:48 19,8 C 75 % 1021,1 hPa 0,0 l/m 2,0 km/h (1 Bft) W-NW 290 2 min 0,000 mm 3,3 UV-I 587 W/m 15,2 C 19,8 C 4,8 km/h (1 Bft) 100,00 %
01.09.2016 10:50 20,0 C 76 % 1021,0 hPa 0,0 l/m 0,6 km/h (0 Bft) W-NW 290 2 min 0,000 mm 3,3 UV-I 591 W/m 15,6 C 20,0 C 3,2 km/h (1 Bft) 97,87 %
01.09.2016 10:52 20,1 C 76 % 1021,0 hPa 0,0 l/m 1,5 km/h (1 Bft) W-NW 290 2 min 0,000 mm 3,4 UV-I 598 W/m 15,7 C 20,1 C 3,2 km/h (1 Bft) 95,74 %
01.09.2016 10:54 20,2 C 75 % 1021,0 hPa 0,0 l/m 0,4 km/h (0 Bft) W-NW 291 2 min 0,000 mm 3,4 UV-I 601 W/m 15,6 C 20,2 C 1,6 km/h (1 Bft) 97,87 %
01.09.2016 10:56 20,3 C 76 % 1021,0 hPa 0,0 l/m 1,8 km/h (1 Bft) NW 325 2 min 0,000 mm 3,5 UV-I 606 W/m 15,9 C 20,3 C 4,8 km/h (1 Bft) 95,74 %
01.09.2016 10:58 20,4 C 75 % 1021,0 hPa 0,0 l/m 1,5 km/h (1 Bft) N-NW 327 2 min 0,000 mm 3,5 UV-I 612 W/m 15,8 C 20,4 C 4,8 km/h (1 Bft) 95,74 %
01.09.2016 11:00 20,5 C 76 % 1021,1 hPa 0,0 l/m 0,9 km/h (0 Bft) W 261 2 min 0,305 mm 3,5 UV-I 613 W/m 16,1 C 20,5 C 4,8 km/h (1 Bft) 95,83 %
01.09.2016 11:02 20,5 C 74 % 1021,1 hPa 0,0 l/m 4,0 km/h (1 Bft) S 188 2 min 0,000 mm 3,6 UV-I 616 W/m 15,7 C 20,5 C 6,4 km/h (2 Bft) 97,87 %
01.09.2016 11:04 20,6 C 74 % 1021,1 hPa 0,0 l/m 4,7 km/h (1 Bft) W-SW 240 2 min 0,000 mm 3,6 UV-I 625 W/m 15,8 C 20,6 C 9,7 km/h (2 Bft) 97,87 %
01.09.2016 11:06 20,8 C 74 % 1021,1 hPa 0,0 l/m 3,8 km/h (1 Bft) S-SW 203 2 min 0,000 mm 3,7 UV-I 629 W/m 16,0 C 20,8 C 8,0 km/h (2 Bft) 97,14 %
01.09.2016 11:08 21,0 C 73 % 1021,1 hPa 0,0 l/m 2,2 km/h (1 Bft) NW 304 2 min 0,000 mm 3,7 UV-I 635 W/m 16,0 C 21,0 C 3,2 km/h (1 Bft) 95,74 %
01.09.2016 11:10 21,1 C 74 % 1021,1 hPa 0,0 l/m 1,6 km/h (1 Bft) S-SW 202 2 min 0,000 mm 3,7 UV-I 638 W/m 16,3 C 21,1 C 4,8 km/h (1 Bft) 97,87 %
01.09.2016 11:12 21,2 C 72 % 1021,0 hPa 0,0 l/m 4,7 km/h (1 Bft) SW 225 2 min 0,000 mm 3,8 UV-I 636 W/m 15,9 C 21,2 C 8,0 km/h (2 Bft) 96,00 %
01.09.2016 11:14 21,2 C 71 % 1021,1 hPa 0,0 l/m 2,7 km/h (1 Bft) S 190 2 min 0,000 mm 3,8 UV-I 638 W/m 15,7 C 21,2 C 6,4 km/h (2 Bft) 95,74 %
01.09.2016 11:16 21,2 C 72 % 1021,0 hPa 0,0 l/m 3,0 km/h (1 Bft) S-SW 197 2 min 0,000 mm 3,8 UV-I 644 W/m 15,9 C 21,2 C 6,4 km/h (2 Bft) 97,87 %
01.09.2016 11:18 21,2 C 72 % 1020,9 hPa 0,0 l/m 7,2 km/h (2 Bft) W-SW 242 2 min 0,000 mm 3,9 UV-I 650 W/m 15,9 C 20,9 C 11,3 km/h (2 Bft) 97,87 %
01.09.2016 11:20 21,2 C 73 % 1021,0 hPa 0,0 l/m 3,8 km/h (1 Bft) S-SW 212 2 min 0,000 mm 3,9 UV-I 654 W/m 16,2 C 21,2 C 8,0 km/h (2 Bft) 97,87 %
01.09.2016 11:22 21,3 C 72 % 1021,0 hPa 0,0 l/m 7,8 km/h (2 Bft) SW 227 2 min 0,000 mm 4,0 UV-I 653 W/m 16,0 C 20,8 C 11,3 km/h (2 Bft) 97,87 %
01.09.2016 11:24 21,4 C 72 % 1020,9 hPa 0,0 l/m 4,9 km/h (1 Bft) S-SW 194 2 min 0,000 mm 4,0 UV-I 658 W/m 16,1 C 21,4 C 9,7 km/h (2 Bft) 100,00 %
01.09.2016 11:26 21,5 C 71 % 1020,9 hPa 0,0 l/m 4,8 km/h (1 Bft) S 171 2 min 0,000 mm 4,0 UV-I 663 W/m 16,0 C 21,5 C 8,0 km/h (2 Bft) 100,00 %
01.09.2016 11:28 21,6 C 71 % 1020,9 hPa 0,0 l/m 6,7 km/h (2 Bft) S 188 2 min 0,000 mm 4,1 UV-I 664 W/m 16,1 C 21,5 C 11,3 km/h (2 Bft) 100,00 %
01.09.2016 11:30 21,8 C 74 % 1020,9 hPa 0,0 l/m 3,9 km/h (1 Bft) W-SW 251 2 min 0,000 mm 3,9 UV-I 668 W/m 17,0 C 21,8 C 4,8 km/h (1 Bft) 100,00 %
01.09.2016 11:32 22,0 C 72 % 1020,9 hPa 0,0 l/m 4,5 km/h (1 Bft) W 267 2 min 0,000 mm 4,2 UV-I 672 W/m 16,7 C 22,0 C 9,7 km/h (2 Bft) 97,87 %
01.09.2016 11:34 21,9 C 71 % 1020,9 hPa 0,0 l/m 4,3 km/h (1 Bft) S-SW 207 2 min 0,000 mm 4,2 UV-I 678 W/m 16,4 C 21,9 C 8,0 km/h (2 Bft) 100,00 %
01.09.2016 11:36 21,9 C 72 % 1021,0 hPa 0,0 l/m 5,8 km/h (2 Bft) S 175 2 min 0,000 mm 4,2 UV-I 679 W/m 16,6 C 21,9 C 9,7 km/h (2 Bft) 100,00 %
01.09.2016 11:38 22,0 C 72 % 1021,0 hPa 0,0 l/m 5,0 km/h (1 Bft) S-SW 205 2 min 0,000 mm 4,2 UV-I 682 W/m 16,7 C 22,0 C 9,7 km/h (2 Bft) 100,00 %
01.09.2016 11:40 22,0 C 71 % 1020,9 hPa 0,0 l/m 6,3 km/h (2 Bft) W-SW 240 2 min 0,000 mm 4,2 UV-I 673 W/m 16,5 C 22,0 C 9,7 km/h (2 Bft) 100,00 %
01.09.2016 11:42 22,1 C 71 % 1020,9 hPa 0,0 l/m 2,3 km/h (1 Bft) W-SW 240 2 min 0,000 mm 4,2 UV-I 665 W/m 16,6 C 22,1 C 6,4 km/h (2 Bft) 95,74 %
01.09.2016 11:44 22,4 C 72 % 1021,0 hPa 0,0 l/m 0,8 km/h (0 Bft) W 268 2 min 0,000 mm 4,3 UV-I 685 W/m 17,1 C 22,4 C 3,2 km/h (1 Bft) 100,00 %
01.09.2016 11:46 22,8 C 72 % 1020,9 hPa 0,0 l/m 4,4 km/h (1 Bft) W-SW 244 2 min 0,000 mm 4,4 UV-I 692 W/m 17,5 C 22,8 C 9,7 km/h (2 Bft) 97,87 %
01.09.2016 11:48 22,6 C 68 % 1020,9 hPa 0,0 l/m 5,7 km/h (1 Bft) W 273 2 min 0,000 mm 4,4 UV-I 694 W/m 16,4 C 22,6 C 9,7 km/h (2 Bft) 100,00 %
01.09.2016 11:50 22,4 C 70 % 1020,8 hPa 0,0 l/m 3,9 km/h (1 Bft) W 271 2 min 0,000 mm 4,4 UV-I 695 W/m 16,7 C 22,4 C 9,7 km/h (2 Bft) 100,00 %
01.09.2016 11:55 22,4 C 69 % 1020,8 hPa 0,0 l/m 4,8 km/h (1 Bft) W-SW 247 5 min 0,000 mm 4,5 UV-I 704 W/m 16,4 C 22,4 C 12,9 km/h (3 Bft) 97,37 %
01.09.2016 12:00 22,8 C 70 % 1020,8 hPa 0,0 l/m 5,1 km/h (1 Bft) W-SW 239 5 min 0,000 mm 4,6 UV-I 710 W/m 17,0 C 22,8 C 8,0 km/h (2 Bft) 99,26 %
01.09.2016 12:02 23,0 C 69 % 1020,8 hPa 0,0 l/m 3,1 km/h (1 Bft) SW 227 2 min 0,406 mm 4,6 UV-I 708 W/m 17,0 C 23,0 C 4,8 km/h (1 Bft) 98,21 %
01.09.2016 12:04 23,1 C 67 % 1020,8 hPa 0,0 l/m 6,0 km/h (2 Bft) W-SW 244 2 min 0,000 mm 4,6 UV-I 710 W/m 16,6 C 23,1 C 8,0 km/h (2 Bft) 100,00 %
01.09.2016 12:06 23,0 C 67 % 1020,7 hPa 0,0 l/m 4,4 km/h (1 Bft) W-SW 258 2 min 0,000 mm 4,6 UV-I 705 W/m 16,5 C 23,0 C 6,4 km/h (2 Bft) 100,00 %
01.09.2016 12:08 23,0 C 67 % 1020,7 hPa 0,0 l/m 3,8 km/h (1 Bft) S 180 2 min 0,000 mm 4,6 UV-I 655 W/m 16,5 C 23,0 C 8,0 km/h (2 Bft) 100,00 %
01.09.2016 12:10 22,9 C 67 % 1020,7 hPa 0,0 l/m 5,5 km/h (1 Bft) S-SW 211 2 min 0,000 mm 4,7 UV-I 677 W/m 16,4 C 22,9 C 12,9 km/h (3 Bft) 100,00 %
01.09.2016 12:12 23,2 C 69 % 1020,7 hPa 0,0 l/m 7,0 km/h (2 Bft) SW 229 2 min 0,000 mm 4,7 UV-I 716 W/m 17,2 C 23,0 C 11,3 km/h (2 Bft) 100,00 %
01.09.2016 12:14 23,3 C 66 % 1020,7 hPa 0,0 l/m 5,0 km/h (1 Bft) S 184 2 min 0,000 mm 4,7 UV-I 711 W/m 16,6 C 23,3 C 9,7 km/h (2 Bft) 100,00 %
01.09.2016 12:16 23,5 C 67 % 1020,7 hPa 0,0 l/m 6,9 km/h (2 Bft) SW 221 2 min 0,000 mm 4,8 UV-I 718 W/m 17,0 C 23,4 C 11,3 km/h (2 Bft) 97,73 %
01.09.2016 12:18 23,6 C 65 % 1020,6 hPa 0,0 l/m 6,3 km/h (2 Bft) W-SW 250 2 min 0,000 mm 4,8 UV-I 712 W/m 16,6 C 23,6 C 11,3 km/h (2 Bft) 98,11 %
01.09.2016 12:20 23,6 C 64 % 1020,7 hPa 0,0 l/m 9,4 km/h (2 Bft) W 263 2 min 0,000 mm 4,8 UV-I 722 W/m 16,4 C 22,8 C 16,1 km/h (3 Bft) 100,00 %
01.09.2016 12:22 23,5 C 63 % 1020,6 hPa 0,0 l/m 6,7 km/h (2 Bft) W 276 2 min 0,000 mm 4,5 UV-I 721 W/m 16,0 C 23,4 C 14,5 km/h (3 Bft) 97,37 %
01.09.2016 12:24 23,5 C 64 % 1020,6 hPa 0,0 l/m 11,4 km/h (2 Bft) SW 235 2 min 0,000 mm 4,9 UV-I 725 W/m 16,3 C 22,2 C 16,1 km/h (3 Bft) 100,00 %
01.09.2016 12:26 23,7 C 63 % 1020,6 hPa 0,0 l/m 10,7 km/h (2 Bft) SW 228 2 min 0,000 mm 4,9 UV-I 720 W/m 16,2 C 22,6 C 14,5 km/h (3 Bft) 98,00 %
01.09.2016 12:28 23,7 C 62 % 1020,6 hPa 0,0 l/m 5,2 km/h (1 Bft) W 261 2 min 0,000 mm 4,8 UV-I 711 W/m 16,0 C 23,7 C 8,0 km/h (2 Bft) 100,00 %
01.09.2016 12:30 23,7 C 61 % 1020,6 hPa 0,0 l/m 7,9 km/h (2 Bft) SW 229 2 min 0,000 mm 4,9 UV-I 723 W/m 15,7 C 23,3 C 12,9 km/h (3 Bft) 100,00 %
01.09.2016 12:32 23,7 C 62 % 1020,6 hPa 0,0 l/m 7,3 km/h (2 Bft) W-NW 293 2 min 0,000 mm 4,9 UV-I 722 W/m 16,0 C 23,4 C 12,9 km/h (3 Bft) 100,00 %
01.09.2016 12:34 23,5 C 60 % 1020,5 hPa 0,0 l/m 5,3 km/h (1 Bft) W 259 2 min 0,000 mm 4,9 UV-I 725 W/m 15,3 C 23,5 C 11,3 km/h (2 Bft) 98,00 %
01.09.2016 12:36 23,5 C 66 % 1020,5 hPa 0,0 l/m 4,6 km/h (1 Bft) W-SW 246 2 min 0,000 mm 4,9 UV-I 727 W/m 16,8 C 23,5 C 9,7 km/h (2 Bft) 97,56 %
01.09.2016 12:38 23,7 C 62 % 1020,5 hPa 0,0 l/m 4,8 km/h (1 Bft) W-SW 246 2 min 0,000 mm 4,9 UV-I 728 W/m 16,0 C 23,7 C 9,7 km/h (2 Bft) 97,87 %
01.09.2016 12:40 23,8 C 61 % 1020,4 hPa 0,0 l/m 4,5 km/h (1 Bft) W-SW 254 2 min 0,000 mm 4,9 UV-I 727 W/m 15,8 C 23,8 C 6,4 km/h (2 Bft) 100,00 %
01.09.2016 12:42 23,9 C 62 % 1020,4 hPa 0,0 l/m 6,9 km/h (2 Bft) SW 225 2 min 0,000 mm 4,9 UV-I 728 W/m 16,2 C 23,8 C 14,5 km/h (3 Bft) 97,87 %
01.09.2016 12:44 24,0 C 59 % 1020,4 hPa 0,0 l/m 6,8 km/h (2 Bft) W 272 2 min 0,000 mm 5,0 UV-I 734 W/m 15,5 C 23,9 C 12,9 km/h (3 Bft) 100,00 %
01.09.2016 12:45 24,0 C 61 % 1020,4 hPa 0,0 l/m 6,4 km/h (2 Bft) W 270 1 min 0,000 mm 5,0 UV-I 732 W/m 16,0 C 24,0 C 14,5 km/h (3 Bft) 94,74 %
01.09.2016 12:50 24,2 C 60 % 1020,3 hPa 0,0 l/m 6,4 km/h (2 Bft) W-SW 247 5 min 0,000 mm 5,0 UV-I 736 W/m 15,9 C 24,2 C 16,1 km/h (3 Bft) 96,49 %
01.09.2016 12:55 24,3 C 58 % 1020,3 hPa 0,0 l/m 3,2 km/h (1 Bft) W 270 5 min 0,000 mm 5,0 UV-I 736 W/m 15,5 C 24,3 C 8,0 km/h (2 Bft) 96,49 %
01.09.2016 13:00 24,4 C 58 % 1020,2 hPa 0,0 l/m 6,4 km/h (2 Bft) W 270 5 min 0,483 mm 5,0 UV-I 737 W/m 15,6 C 24,4 C 12,9 km/h (3 Bft) 97,37 %
01.09.2016 13:05 24,5 C 59 % 1020,2 hPa 0,0 l/m 4,8 km/h (1 Bft) W-NW 292 5 min 0,000 mm 5,0 UV-I 736 W/m 15,9 C 24,5 C 11,3 km/h (2 Bft) 93,86 %
01.09.2016 13:10 24,3 C 57 % 1020,1 hPa 0,0 l/m 3,2 km/h (1 Bft) W-NW 292 5 min 0,000 mm 5,0 UV-I 734 W/m 15,2 C 24,3 C 6,4 km/h (2 Bft) 83,33 %
01.09.2016 13:15 24,6 C 60 % 1020,1 hPa 0,0 l/m 4,8 km/h (1 Bft) W 270 5 min 0,000 mm 5,0 UV-I 733 W/m 16,3 C 24,6 C 11,3 km/h (2 Bft) 77,19 %
01.09.2016 13:18 24,7 C 55 % 1020,1 hPa 0,0 l/m 2,4 km/h (1 Bft) SW 236 3 min 0,000 mm 5,0 UV-I 734 W/m 15,0 C 24,7 C 6,4 km/h (2 Bft) 96,95 %
01.09.2016 13:20 24,7 C 55 % 1020,1 hPa 0,0 l/m 6,7 km/h (2 Bft) W 267 2 min 0,000 mm 4,9 UV-I 727 W/m 15,0 C 24,6 C 11,3 km/h (2 Bft) 100,00 %
01.09.2016 13:22 24,8 C 56 % 1020,1 hPa 0,0 l/m 7,2 km/h (2 Bft) W 270 2 min 0,000 mm 4,9 UV-I 731 W/m 15,4 C 24,6 C 12,9 km/h (3 Bft) 100,00 %
01.09.2016 13:24 25,1 C 55 % 1020,1 hPa 0,0 l/m 2,4 km/h (1 Bft) W 262 2 min 0,000 mm 4,9 UV-I 732 W/m 15,4 C 25,1 C 4,8 km/h (1 Bft) 100,00 %
01.09.2016 13:26 25,3 C 57 % 1020,0 hPa 0,0 l/m 2,7 km/h (1 Bft) W-SW 250 2 min 0,000 mm 4,9 UV-I 731 W/m 16,2 C 25,3 C 4,8 km/h (1 Bft) 100,00 %
01.09.2016 13:28 25,4 C 53 % 1020,0 hPa 0,0 l/m 1,3 km/h (1 Bft) W-SW 250 2 min 0,000 mm 4,9 UV-I 732 W/m 15,1 C 25,4 C 3,2 km/h (1 Bft) 100,00 %
01.09.2016 13:30 25,6 C 53 % 1020,1 hPa 0,0 l/m 4,0 km/h (1 Bft) W-NW 291 2 min 0,000 mm 4,8 UV-I 719 W/m 15,3 C 25,6 C 12,9 km/h (3 Bft) 100,00 %
01.09.2016 13:32 25,6 C 50 % 1020,0 hPa 0,0 l/m 5,7 km/h (1 Bft) W-SW 252 2 min 0,000 mm 5,0 UV-I 743 W/m 14,4 C 25,6 C 11,3 km/h (2 Bft) 100,00 %
01.09.2016 13:34 25,5 C 51 % 1020,1 hPa 0,0 l/m 4,2 km/h (1 Bft) N 349 2 min 0,000 mm 4,9 UV-I 742 W/m 14,6 C 25,5 C 6,4 km/h (2 Bft) 100,00 %
01.09.2016 13:36 25,2 C 53 % 1020,0 hPa 0,0 l/m 5,8 km/h (2 Bft) N 350 2 min 0,000 mm 4,8 UV-I 729 W/m 14,9 C 25,2 C 12,9 km/h (3 Bft) 100,00 %
01.09.2016 13:38 25,2 C 55 % 1020,0 hPa 0,0 l/m 3,4 km/h (1 Bft) N-NO 17 2 min 0,000 mm 4,8 UV-I 727 W/m 15,5 C 25,2 C 6,4 km/h (2 Bft) 97,87 %
01.09.2016 13:40 25,4 C 55 % 1020,0 hPa 0,0 l/m 5,2 km/h (1 Bft) W-SW 257 2 min 0,000 mm 4,9 UV-I 741 W/m 15,7 C 25,4 C 12,9 km/h (3 Bft) 98,00 %
01.09.2016 13:42 25,6 C 53 % 1020,0 hPa 0,0 l/m 10,5 km/h (2 Bft) SW 217 2 min 0,000 mm 4,8 UV-I 732 W/m 15,3 C 24,7 C 16,1 km/h (3 Bft) 100,00 %
01.09.2016 13:44 25,6 C 51 % 1020,1 hPa 0,0 l/m 8,2 km/h (2 Bft) W 267 2 min 0,000 mm 4,8 UV-I 729 W/m 14,7 C 25,2 C 12,9 km/h (3 Bft) 98,00 %
01.09.2016 13:46 25,3 C 50 % 1020,0 hPa 0,0 l/m 5,6 km/h (1 Bft) SW 215 2 min 0,000 mm 4,8 UV-I 731 W/m 14,1 C 25,3 C 12,9 km/h (3 Bft) 100,00 %
01.09.2016 13:48 25,4 C 52 % 1020,0 hPa 0,0 l/m 5,7 km/h (1 Bft) W-SW 256 2 min 0,000 mm 4,8 UV-I 733 W/m 14,8 C 25,4 C 11,3 km/h (2 Bft) 100,00 %
01.09.2016 13:50 25,3 C 53 % 1019,9 hPa 0,0 l/m 2,1 km/h (1 Bft) W-SW 246 2 min 0,000 mm 4,8 UV-I 732 W/m 15,0 C 25,3 C 8,0 km/h (2 Bft) 100,00 %
01.09.2016 13:52 25,3 C 53 % 1019,9 hPa 0,0 l/m 3,9 km/h (1 Bft) W 280 2 min 0,000 mm 4,7 UV-I 731 W/m 15,0 C 25,3 C 9,7 km/h (2 Bft) 97,87 %
01.09.2016 13:54 25,5 C 55 % 1019,9 hPa 0,0 l/m 3,6 km/h (1 Bft) NW 304 2 min 0,000 mm 4,7 UV-I 735 W/m 15,8 C 25,5 C 11,3 km/h (2 Bft) 100,00 %
01.09.2016 13:56 25,6 C 52 % 1019,8 hPa 0,0 l/m 4,4 km/h (1 Bft) SW 232 2 min 0,000 mm 4,6 UV-I 731 W/m 15,0 C 25,6 C 9,7 km/h (2 Bft) 100,00 %
01.09.2016 13:58 25,6 C 52 % 1019,8 hPa 0,0 l/m 4,3 km/h (1 Bft) W-NW 298 2 min 0,000 mm 4,6 UV-I 741 W/m 15,0 C 25,6 C 9,7 km/h (2 Bft) 98,00 %
01.09.2016 14:00 25,7 C 52 % 1019,9 hPa 0,0 l/m 6,0 km/h (2 Bft) NW 308 2 min 0,000 mm 4,7 UV-I 738 W/m 15,1 C 25,7 C 12,9 km/h (3 Bft) 100,00 %
01.09.2016 14:02 25,9 C 51 % 1019,8 hPa 0,0 l/m 6,7 km/h (2 Bft) W-SW 252 2 min 0,482 mm 4,6 UV-I 744 W/m 15,0 C 25,8 C 17,7 km/h (3 Bft) 100,00 %
01.09.2016 14:04 25,9 C 49 % 1019,9 hPa 0,0 l/m 9,2 km/h (2 Bft) W 273 2 min 0,000 mm 4,5 UV-I 767 W/m 14,4 C 25,3 C 16,1 km/h (3 Bft) 100,00 %
01.09.2016 14:06 25,7 C 49 % 1019,8 hPa 0,0 l/m 3,9 km/h (1 Bft) SW 223 2 min 0,000 mm 3,8 UV-I 586 W/m 14,2 C 25,7 C 9,7 km/h (2 Bft) 100,00 %
01.09.2016 14:08 25,7 C 52 % 1019,8 hPa 0,0 l/m 7,1 km/h (2 Bft) W-SW 241 0 min 0,000 mm 4,0 UV-I 369 W/m 15,1 C 25,5 C 12,9 km/h (3 Bft) 100,00 %
01.09.2016 14:10 25,8 C 52 % 1019,8 hPa 0,0 l/m 9,7 km/h (2 Bft) SW 215 2 min 0,000 mm 4,5 UV-I 721 W/m 15,2 C 25,1 C 14,5 km/h (3 Bft) 100,00 %
01.09.2016 14:15 25,8 C 51 % 1019,8 hPa 0,0 l/m 4,8 km/h (1 Bft) W-NW 292 5 min 0,000 mm 4,7 UV-I 799 W/m 14,9 C 25,8 C 11,3 km/h (2 Bft) 100,00 %
01.09.2016 14:18 25,9 C 49 % 1019,8 hPa 0,0 l/m 2,4 km/h (1 Bft) W 268 3 min 0,000 mm 4,2 UV-I 813 W/m 14,4 C 25,9 C 4,8 km/h (1 Bft) 100,00 %
01.09.2016 14:20 26,2 C 50 % 1019,8 hPa 0,0 l/m 4,8 km/h (1 Bft) W-SW 243 2 min 0,000 mm 3,9 UV-I 655 W/m 14,9 C 26,2 C 14,5 km/h (3 Bft) 98,21 %
01.09.2016 14:22 26,1 C 48 % 1019,8 hPa 0,0 l/m 8,6 km/h (2 Bft) W 261 2 min 0,000 mm 3,1 UV-I 561 W/m 14,2 C 25,6 C 14,5 km/h (3 Bft) 100,00 %
01.09.2016 14:24 25,8 C 49 % 1019,7 hPa 0,0 l/m 4,5 km/h (1 Bft) W 263 0 min 0,000 mm 2,6 UV-I 232 W/m 14,3 C 25,8 C 8,0 km/h (2 Bft) 100,00 %
01.09.2016 14:26 25,6 C 50 % 1019,7 hPa 0,0 l/m 2,9 km/h (1 Bft) W-SW 248 0 min 0,000 mm 2,9 UV-I 260 W/m 14,4 C 25,6 C 4,8 km/h (1 Bft) 100,00 %
01.09.2016 14:28 25,6 C 53 % 1019,7 hPa 0,0 l/m 2,2 km/h (1 Bft) N 9 2 min 0,000 mm 3,7 UV-I 405 W/m 15,3 C 25,6 C 6,4 km/h (2 Bft) 98,53 %
01.09.2016 14:30 25,6 C 52 % 1019,7 hPa 0,0 l/m 5,0 km/h (1 Bft) N-NW 342 0 min 0,000 mm 3,5 UV-I 376 W/m 15,0 C 25,6 C 12,9 km/h (3 Bft) 97,37 %
01.09.2016 14:32 25,6 C 50 % 1019,7 hPa 0,0 l/m 7,6 km/h (2 Bft) W-SW 249 2 min 0,000 mm 3,4 UV-I 427 W/m 14,4 C 25,3 C 17,7 km/h (3 Bft) 100,00 %
01.09.2016 14:34 25,7 C 49 % 1019,7 hPa 0,0 l/m 3,9 km/h (1 Bft) S-SW 213 2 min 0,000 mm 3,6 UV-I 490 W/m 14,2 C 25,7 C 12,9 km/h (3 Bft) 95,12 %
01.09.2016 14:36 25,8 C 46 % 1019,6 hPa 0,0 l/m 6,1 km/h (2 Bft) NW 306 2 min 0,000 mm 4,3 UV-I 738 W/m 13,3 C 25,8 C 16,1 km/h (3 Bft) 100,00 %
01.09.2016 14:38 26,2 C 47 % 1019,6 hPa 0,0 l/m 5,1 km/h (1 Bft) W-SW 253 2 min 0,000 mm 4,5 UV-I 927 W/m 14,0 C 26,2 C 14,5 km/h (3 Bft) 100,00 %
01.09.2016 14:40 26,6 C 48 % 1019,6 hPa 0,0 l/m 10,3 km/h (2 Bft) W-SW 256 2 min 0,000 mm 4,2 UV-I 793 W/m 14,7 C 25,9 C 14,5 km/h (3 Bft) 97,87 %
01.09.2016 14:42 26,7 C 46 % 1019,6 hPa 0,0 l/m 7,3 km/h (2 Bft) W-SW 238 2 min 0,000 mm 4,3 UV-I 711 W/m 14,1 C 26,5 C 11,3 km/h (2 Bft) 100,00 %
01.09.2016 14:44 26,6 C 49 % 1019,6 hPa 0,0 l/m 6,6 km/h (2 Bft) N-NW 336 2 min 0,000 mm 3,7 UV-I 860 W/m 15,0 C 26,6 C 12,9 km/h (3 Bft) 100,00 %
01.09.2016 14:46 26,7 C 49 % 1019,6 hPa 0,0 l/m 4,4 km/h (1 Bft) S-SW 212 2 min 0,000 mm 3,0 UV-I 532 W/m 15,1 C 26,7 C 8,0 km/h (2 Bft) 98,00 %
01.09.2016 14:48 26,7 C 48 % 1019,6 hPa 0,0 l/m 4,7 km/h (1 Bft) W-SW 249 2 min 0,000 mm 3,5 UV-I 445 W/m 14,8 C 26,7 C 12,9 km/h (3 Bft) 92,31 %
01.09.2016 14:50 26,3 C 49 % 1019,6 hPa 0,0 l/m 6,9 km/h (2 Bft) W 259 2 min 0,000 mm 3,4 UV-I 487 W/m 14,7 C 26,2 C 14,5 km/h (3 Bft) 97,62 %
01.09.2016 14:52 26,2 C 50 % 1019,6 hPa 0,0 l/m 6,2 km/h (2 Bft) W-SW 244 2 min 0,000 mm 3,1 UV-I 515 W/m 14,9 C 26,2 C 11,3 km/h (2 Bft) 97,87 %
01.09.2016 14:54 26,2 C 50 % 1019,6 hPa 0,0 l/m 5,1 km/h (1 Bft) W-NW 288 2 min 0,000 mm 3,9 UV-I 835 W/m 14,9 C 26,2 C 11,3 km/h (2 Bft) 95,74 %
01.09.2016 14:56 26,2 C 51 % 1019,5 hPa 0,0 l/m 5,8 km/h (2 Bft) NW 325 2 min 0,000 mm 3,9 UV-I 800 W/m 15,2 C 26,2 C 12,9 km/h (3 Bft) 94,74 %
01.09.2016 14:58 26,3 C 48 % 1019,5 hPa 0,0 l/m 4,3 km/h (1 Bft) SW 221 2 min 0,000 mm 3,3 UV-I 684 W/m 14,4 C 26,3 C 9,7 km/h (2 Bft) 98,00 %
01.09.2016 15:00 26,1 C 50 % 1019,5 hPa 0,0 l/m 2,7 km/h (1 Bft) W-NW 299 2 min 0,000 mm 3,2 UV-I 541 W/m 14,8 C 26,1 C 8,0 km/h (2 Bft) 96,00 %
01.09.2016 15:02 26,2 C 49 % 1019,5 hPa 0,0 l/m 3,3 km/h (1 Bft) SW 236 2 min 0,432 mm 3,6 UV-I 512 W/m 14,6 C 26,2 C 17,7 km/h (3 Bft) 97,73 %
01.09.2016 15:04 26,3 C 46 % 1019,5 hPa 0,0 l/m 11,7 km/h (2 Bft) SW 216 2 min 0,000 mm 3,7 UV-I 618 W/m 13,7 C 25,3 C 19,3 km/h (3 Bft) 98,00 %
01.09.2016 15:06 26,4 C 46 % 1019,6 hPa 0,0 l/m 7,8 km/h (2 Bft) W-NW 286 2 min 0,000 mm 3,6 UV-I 738 W/m 13,8 C 26,1 C 16,1 km/h (3 Bft) 96,23 %
01.09.2016 15:08 26,2 C 46 % 1019,5 hPa 0,0 l/m 5,3 km/h (1 Bft) N-NW 340 2 min 0,000 mm 3,4 UV-I 686 W/m 13,6 C 26,2 C 11,3 km/h (2 Bft) 97,37 %
01.09.2016 15:10 26,1 C 46 % 1019,5 hPa 0,0 l/m 3,1 km/h (1 Bft) W-NW 286 0 min 0,000 mm 2,9 UV-I 344 W/m 13,6 C 26,1 C 6,4 km/h (2 Bft) 95,74 %
01.09.2016 15:12 25,9 C 47 % 1019,5 hPa 0,0 l/m 3,6 km/h (1 Bft) W-NW 288 0 min 0,000 mm 2,9 UV-I 290 W/m 13,7 C 25,9 C 11,3 km/h (2 Bft) 98,00 %
01.09.2016 15:14 26,1 C 47 % 1019,4 hPa 0,0 l/m 4,1 km/h (1 Bft) W-NW 282 2 min 0,000 mm 3,5 UV-I 622 W/m 13,9 C 26,1 C 11,3 km/h (2 Bft) 98,00 %
01.09.2016 15:16 26,3 C 46 % 1019,4 hPa 0,0 l/m 2,6 km/h (1 Bft) SW 234 2 min 0,000 mm 3,4 UV-I 667 W/m 13,7 C 26,3 C 4,8 km/h (1 Bft) 98,00 %
01.09.2016 15:18 26,4 C 46 % 1019,4 hPa 0,0 l/m 8,4 km/h (2 Bft) W-SW 247 2 min 0,000 mm 3,4 UV-I 652 W/m 13,8 C 26,0 C 14,5 km/h (3 Bft) 94,74 %
01.09.2016 15:20 26,3 C 46 % 1019,4 hPa 0,0 l/m 6,3 km/h (2 Bft) W 259 2 min 0,000 mm 3,3 UV-I 634 W/m 13,7 C 26,3 C 9,7 km/h (2 Bft) 98,11 %
01.09.2016 15:22 26,3 C 49 % 1019,4 hPa 0,0 l/m 11,4 km/h (2 Bft) SW 234 2 min 0,000 mm 3,3 UV-I 625 W/m 14,7 C 25,4 C 17,7 km/h (3 Bft) 100,00 %
01.09.2016 15:24 26,4 C 48 % 1019,3 hPa 0,0 l/m 9,5 km/h (2 Bft) W-SW 257 2 min 0,000 mm 3,2 UV-I 618 W/m 14,5 C 25,8 C 16,1 km/h (3 Bft) 100,00 %
01.09.2016 15:26 26,5 C 46 % 1019,3 hPa 0,0 l/m 5,4 km/h (1 Bft) W 271 2 min 0,000 mm 3,2 UV-I 612 W/m 13,9 C 26,5 C 11,3 km/h (2 Bft) 98,31 %
01.09.2016 15:28 26,4 C 46 % 1019,4 hPa 0,0 l/m 6,8 km/h (2 Bft) W-SW 241 2 min 0,000 mm 3,1 UV-I 606 W/m 13,8 C 26,3 C 12,9 km/h (3 Bft) 100,00 %
01.09.2016 15:30 26,3 C 45 % 1019,3 hPa 0,0 l/m 7,9 km/h (2 Bft) W-SW 244 2 min 0,000 mm 3,1 UV-I 603 W/m 13,4 C 26,0 C 12,9 km/h (3 Bft) 100,00 %
01.09.2016 15:32 26,3 C 46 % 1019,4 hPa 0,0 l/m 10,8 km/h (2 Bft) W 278 2 min 0,000 mm 3,0 UV-I 596 W/m 13,7 C 25,5 C 16,1 km/h (3 Bft) 100,00 %
01.09.2016 15:34 26,2 C 50 % 1019,3 hPa 0,0 l/m 10,2 km/h (2 Bft) W-SW 242 2 min 0,000 mm 2,9 UV-I 581 W/m 14,9 C 25,5 C 14,5 km/h (3 Bft) 100,00 %
01.09.2016 15:36 26,2 C 47 % 1019,3 hPa 0,0 l/m 5,4 km/h (1 Bft) NW 316 2 min 0,000 mm 2,9 UV-I 577 W/m 14,0 C 26,2 C 11,3 km/h (2 Bft) 100,00 %
01.09.2016 15:38 26,3 C 50 % 1019,3 hPa 0,0 l/m 7,1 km/h (2 Bft) W-SW 255 2 min 0,000 mm 2,9 UV-I 579 W/m 15,0 C 26,2 C 12,9 km/h (3 Bft) 98,00 %
01.09.2016 15:40 26,3 C 48 % 1019,3 hPa 0,0 l/m 8,2 km/h (2 Bft) SW 221 2 min 0,000 mm 2,8 UV-I 572 W/m 14,4 C 25,9 C 14,5 km/h (3 Bft) 100,00 %
01.09.2016 15:42 26,3 C 49 % 1019,3 hPa 0,0 l/m 11,8 km/h (2 Bft) W-SW 239 2 min 0,000 mm 2,7 UV-I 564 W/m 14,7 C 25,3 C 16,1 km/h (3 Bft) 100,00 %
01.09.2016 15:44 26,4 C 49 % 1019,3 hPa 0,0 l/m 11,2 km/h (2 Bft) W-SW 242 2 min 0,000 mm 2,6 UV-I 557 W/m 14,8 C 25,5 C 16,1 km/h (3 Bft) 100,00 %
01.09.2016 15:46 26,3 C 49 % 1019,3 hPa 0,0 l/m 7,7 km/h (2 Bft) W 280 2 min 0,000 mm 2,6 UV-I 563 W/m 14,7 C 26,0 C 12,9 km/h (3 Bft) 100,00 %
01.09.2016 15:48 26,3 C 50 % 1019,3 hPa 0,0 l/m 3,3 km/h (1 Bft) W-SW 238 2 min 0,000 mm 2,6 UV-I 560 W/m 15,0 C 26,3 C 4,8 km/h (1 Bft) 100,00 %
01.09.2016 15:50 26,4 C 52 % 1019,3 hPa 0,0 l/m 2,7 km/h (1 Bft) NW 321 2 min 0,000 mm 2,6 UV-I 563 W/m 15,7 C 26,4 C 4,8 km/h (1 Bft) 100,00 %
01.09.2016 15:52 26,4 C 50 % 1019,3 hPa 0,0 l/m 3,4 km/h (1 Bft) W-SW 240 2 min 0,000 mm 2,5 UV-I 554 W/m 15,1 C 26,4 C 6,4 km/h (2 Bft) 100,00 %
01.09.2016 15:54 26,5 C 49 % 1019,3 hPa 0,0 l/m 9,9 km/h (2 Bft) W 263 2 min 0,000 mm 2,5 UV-I 556 W/m 14,9 C 25,8 C 19,3 km/h (3 Bft) 100,00 %
01.09.2016 15:56 26,4 C 46 % 1019,4 hPa 0,0 l/m 7,6 km/h (2 Bft) SW 229 2 min 0,000 mm 2,5 UV-I 562 W/m 13,8 C 26,2 C 14,5 km/h (3 Bft) 100,00 %
01.09.2016 15:58 26,4 C 48 % 1019,4 hPa 0,0 l/m 5,9 km/h (2 Bft) W-SW 243 2 min 0,000 mm 2,4 UV-I 553 W/m 14,5 C 26,4 C 11,3 km/h (2 Bft) 98,00 %
01.09.2016 16:00 26,4 C 48 % 1019,4 hPa 0,0 l/m 7,6 km/h (2 Bft) N 5 2 min 0,000 mm 2,4 UV-I 542 W/m 14,5 C 26,2 C 12,9 km/h (3 Bft) 100,00 %
01.09.2016 16:02 26,5 C 48 % 1019,4 hPa 0,0 l/m 3,3 km/h (1 Bft) W 275 2 min 0,432 mm 2,4 UV-I 549 W/m 14,6 C 26,5 C 9,7 km/h (2 Bft) 98,11 %
01.09.2016 16:04 26,6 C 48 % 1019,4 hPa 0,0 l/m 3,7 km/h (1 Bft) NO 35 2 min 0,000 mm 2,3 UV-I 554 W/m 14,7 C 26,6 C 8,0 km/h (2 Bft) 100,00 %
01.09.2016 16:06 26,6 C 48 % 1019,4 hPa 0,0 l/m 4,0 km/h (1 Bft) NW 322 2 min 0,000 mm 2,2 UV-I 547 W/m 14,7 C 26,6 C 11,3 km/h (2 Bft) 100,00 %
01.09.2016 16:08 26,8 C 48 % 1019,4 hPa 0,0 l/m 5,0 km/h (1 Bft) SW 217 2 min 0,000 mm 2,2 UV-I 549 W/m 14,9 C 26,8 C 9,7 km/h (2 Bft) 96,00 %
01.09.2016 16:10 26,8 C 47 % 1019,3 hPa 0,0 l/m 4,0 km/h (1 Bft) W-SW 244 2 min 0,000 mm 2,2 UV-I 535 W/m 14,5 C 26,8 C 6,4 km/h (2 Bft) 100,00 %
01.09.2016 16:12 26,7 C 45 % 1019,3 hPa 0,0 l/m 3,6 km/h (1 Bft) SW 221 2 min 0,000 mm 2,1 UV-I 511 W/m 13,8 C 26,7 C 6,4 km/h (2 Bft) 100,00 %
01.09.2016 16:14 26,7 C 47 % 1019,2 hPa 0,0 l/m 7,5 km/h (2 Bft) W-SW 251 2 min 0,000 mm 2,1 UV-I 500 W/m 14,4 C 26,5 C 17,7 km/h (3 Bft) 100,00 %
01.09.2016 16:16 26,6 C 47 % 1019,3 hPa 0,0 l/m 9,8 km/h (2 Bft) W 263 2 min 0,000 mm 2,1 UV-I 499 W/m 14,3 C 26,0 C 16,1 km/h (3 Bft) 98,11 %
01.09.2016 16:18 26,4 C 48 % 1019,3 hPa 0,0 l/m 9,2 km/h (2 Bft) W-SW 257 2 min 0,000 mm 2,0 UV-I 489 W/m 14,5 C 25,8 C 14,5 km/h (3 Bft) 100,00 %
01.09.2016 16:20 26,6 C 49 % 1019,3 hPa 0,0 l/m 6,7 km/h (2 Bft) S 182 2 min 0,000 mm 2,0 UV-I 482 W/m 15,0 C 26,5 C 9,7 km/h (2 Bft) 100,00 %
01.09.2016 16:22 26,6 C 47 % 1019,3 hPa 0,0 l/m 8,7 km/h (2 Bft) W-SW 254 2 min 0,000 mm 1,9 UV-I 476 W/m 14,3 C 26,2 C 14,5 km/h (3 Bft) 100,00 %
01.09.2016 16:24 26,7 C 48 % 1019,2 hPa 0,0 l/m 6,0 km/h (2 Bft) N-NW 330 2 min 0,000 mm 1,9 UV-I 468 W/m 14,8 C 26,7 C 12,9 km/h (3 Bft) 100,00 %
01.09.2016 16:26 26,6 C 46 % 1019,3 hPa 0,0 l/m 6,2 km/h (2 Bft) W-NW 294 2 min 0,000 mm 1,9 UV-I 464 W/m 14,0 C 26,6 C 12,9 km/h (3 Bft) 100,00 %
01.09.2016 16:28 26,6 C 47 % 1019,2 hPa 0,0 l/m 5,5 km/h (1 Bft) W 268 2 min 0,000 mm 1,8 UV-I 463 W/m 14,3 C 26,6 C 9,7 km/h (2 Bft) 96,23 %
01.09.2016 16:30 26,4 C 46 % 1019,2 hPa 0,0 l/m 5,1 km/h (1 Bft) W-NW 289 2 min 0,000 mm 1,8 UV-I 467 W/m 13,8 C 26,4 C 11,3 km/h (2 Bft) 100,00 %
01.09.2016 16:32 26,3 C 47 % 1019,1 hPa 0,0 l/m 1,4 km/h (1 Bft) SW 233 2 min 0,000 mm 1,8 UV-I 462 W/m 14,1 C 26,3 C 3,2 km/h (1 Bft) 100,00 %
01.09.2016 16:34 26,4 C 50 % 1019,1 hPa 0,0 l/m 1,7 km/h (1 Bft) SW 217 2 min 0,000 mm 1,7 UV-I 454 W/m 15,1 C 26,4 C 3,2 km/h (1 Bft) 100,00 %
01.09.2016 16:36 26,4 C 50 % 1019,1 hPa 0,0 l/m 4,4 km/h (1 Bft) N-NW 328 2 min 0,000 mm 1,7 UV-I 449 W/m 15,1 C 26,4 C 14,5 km/h (3 Bft) 100,00 %
01.09.2016 16:38 26,4 C 49 % 1019,1 hPa 0,0 l/m 5,0 km/h (1 Bft) W-SW 238 2 min 0,000 mm 1,6 UV-I 438 W/m 14,8 C 26,4 C 11,3 km/h (2 Bft) 100,00 %
01.09.2016 16:40 26,5 C 51 % 1019,1 hPa 0,0 l/m 4,7 km/h (1 Bft) W-SW 250 2 min 0,000 mm 1,6 UV-I 433 W/m 15,5 C 26,5 C 8,0 km/h (2 Bft) 100,00 %
01.09.2016 16:42 26,7 C 47 % 1019,1 hPa 0,0 l/m 4,7 km/h (1 Bft) SW 234 2 min 0,000 mm 1,5 UV-I 423 W/m 14,4 C 26,7 C 11,3 km/h (2 Bft) 98,11 %
01.09.2016 16:44 26,6 C 48 % 1019,1 hPa 0,0 l/m 3,7 km/h (1 Bft) W-NW 291 2 min 0,000 mm 1,5 UV-I 415 W/m 14,7 C 26,6 C 6,4 km/h (2 Bft) 100,00 %
01.09.2016 16:46 26,4 C 48 % 1019,1 hPa 0,0 l/m 7,2 km/h (2 Bft) W 265 2 min 0,000 mm 1,4 UV-I 409 W/m 14,5 C 26,2 C 12,9 km/h (3 Bft) 97,37 %
01.09.2016 16:48 26,3 C 48 % 1019,1 hPa 0,0 l/m 3,2 km/h (1 Bft) W 264 2 min 0,000 mm 1,4 UV-I 407 W/m 14,4 C 26,3 C 8,0 km/h (2 Bft) 97,87 %
01.09.2016 16:50 26,2 C 48 % 1019,1 hPa 0,0 l/m 8,6 km/h (2 Bft) W-SW 246 2 min 0,000 mm 1,4 UV-I 403 W/m 14,3 C 25,7 C 12,9 km/h (3 Bft) 94,00 %
01.09.2016 16:52 26,2 C 46 % 1019,0 hPa 0,0 l/m 3,4 km/h (1 Bft) S-SW 212 2 min 0,000 mm 1,3 UV-I 398 W/m 13,6 C 26,2 C 6,4 km/h (2 Bft) 95,74 %
01.09.2016 16:54 26,3 C 48 % 1019,0 hPa 0,0 l/m 4,0 km/h (1 Bft) W-SW 242 2 min 0,000 mm 1,3 UV-I 395 W/m 14,4 C 26,3 C 6,4 km/h (2 Bft) 98,00 %
01.09.2016 16:56 26,3 C 47 % 1019,1 hPa 0,0 l/m 3,9 km/h (1 Bft) NW 325 2 min 0,000 mm 1,3 UV-I 396 W/m 14,1 C 26,3 C 9,7 km/h (2 Bft) 97,87 %
01.09.2016 16:58 26,2 C 47 % 1019,0 hPa 0,0 l/m 3,3 km/h (1 Bft) W-NW 286 2 min 0,000 mm 1,2 UV-I 389 W/m 14,0 C 26,2 C 6,4 km/h (2 Bft) 97,37 %
01.09.2016 17:00 26,2 C 48 % 1019,0 hPa 0,0 l/m 5,0 km/h (1 Bft) SW 225 2 min 0,000 mm 1,2 UV-I 386 W/m 14,3 C 26,2 C 8,0 km/h (2 Bft) 98,21 %
01.09.2016 17:02 26,2 C 49 % 1019,0 hPa 0,0 l/m 6,4 km/h (2 Bft) W 265 2 min 0,330 mm 1,1 UV-I 373 W/m 14,6 C 26,2 C 11,3 km/h (2 Bft) 97,37 %
01.09.2016 17:04 26,3 C 49 % 1019,0 hPa 0,0 l/m 4,2 km/h (1 Bft) W 273 2 min 0,000 mm 1,0 UV-I 341 W/m 14,7 C 26,3 C 9,7 km/h (2 Bft) 98,11 %
01.09.2016 17:06 26,2 C 49 % 1018,9 hPa 0,0 l/m 4,7 km/h (1 Bft) W 265 2 min 0,000 mm 0,8 UV-I 242 W/m 14,6 C 26,2 C 9,7 km/h (2 Bft) 95,74 %
01.09.2016 17:08 26,1 C 49 % 1019,0 hPa 0,0 l/m 3,6 km/h (1 Bft) W-SW 252 0 min 0,000 mm 0,8 UV-I 106 W/m 14,5 C 26,1 C 9,7 km/h (2 Bft) 98,00 %
01.09.2016 17:10 25,9 C 50 % 1019,0 hPa 0,0 l/m 5,4 km/h (1 Bft) W 259 0 min 0,000 mm 0,7 UV-I 68 W/m 14,7 C 25,9 C 9,7 km/h (2 Bft) 97,87 %
01.09.2016 17:12 25,8 C 50 % 1019,0 hPa 0,0 l/m 2,8 km/h (1 Bft) W 259 0 min 0,000 mm 0,6 UV-I 69 W/m 14,6 C 25,8 C 4,8 km/h (1 Bft) 97,50 %
01.09.2016 17:14 25,6 C 51 % 1019,0 hPa 0,0 l/m 1,8 km/h (1 Bft) W 271 0 min 0,000 mm 0,6 UV-I 73 W/m 14,7 C 25,6 C 3,2 km/h (1 Bft) 98,11 %
01.09.2016 17:16 25,3 C 51 % 1019,0 hPa 0,0 l/m 3,4 km/h (1 Bft) W 272 0 min 0,000 mm 0,6 UV-I 77 W/m 14,4 C 25,3 C 6,4 km/h (2 Bft) 97,44 %
01.09.2016 17:18 25,2 C 52 % 1019,0 hPa 0,0 l/m 3,2 km/h (1 Bft) W-NW 290 0 min 0,000 mm 0,5 UV-I 75 W/m 14,6 C 25,2 C 6,4 km/h (2 Bft) 97,87 %
01.09.2016 17:20 25,1 C 52 % 1019,0 hPa 0,0 l/m 1,8 km/h (1 Bft) W-NW 290 0 min 0,000 mm 0,5 UV-I 71 W/m 14,5 C 25,1 C 3,2 km/h (1 Bft) 97,87 %
01.09.2016 17:22 24,9 C 53 % 1019,0 hPa 0,0 l/m 1,1 km/h (1 Bft) W-NW 290 0 min 0,000 mm 0,2 UV-I 65 W/m 14,6 C 24,9 C 3,2 km/h (1 Bft) 100,00 %
01.09.2016 17:24 24,9 C 53 % 1018,9 hPa 0,0 l/m 1,2 km/h (1 Bft) W-NW 290 0 min 0,000 mm 0,0 UV-I 61 W/m 14,6 C 24,9 C 3,2 km/h (1 Bft) 100,00 %
01.09.2016 17:26 24,8 C 54 % 1019,0 hPa 0,0 l/m 1,2 km/h (1 Bft) W-NW 290 0 min 0,000 mm 0,0 UV-I 56 W/m 14,8 C 24,8 C 3,2 km/h (1 Bft) 100,00 %
01.09.2016 17:28 24,7 C 57 % 1018,9 hPa 0,0 l/m 2,3 km/h (1 Bft) N 5 0 min 0,000 mm 0,0 UV-I 53 W/m 15,6 C 24,7 C 4,8 km/h (1 Bft) 100,00 %
01.09.2016 17:30 24,5 C 57 % 1019,0 hPa 0,0 l/m 0,5 km/h (0 Bft) N 355 0 min 0,000 mm 0,0 UV-I 48 W/m 15,4 C 24,5 C 3,2 km/h (1 Bft) 100,00 %
01.09.2016 17:32 24,3 C 57 % 1019,0 hPa 0,0 l/m 0,1 km/h (0 Bft) N 355 0 min 0,000 mm 0,0 UV-I 45 W/m 15,2 C 24,3 C 1,6 km/h (1 Bft) 100,00 %
01.09.2016 17:34 24,3 C 56 % 1019,0 hPa 0,0 l/m 0,4 km/h (0 Bft) N 355 0 min 0,000 mm 0,0 UV-I 41 W/m 14,9 C 24,3 C 1,6 km/h (1 Bft) 100,00 %
01.09.2016 17:36 24,2 C 54 % 1019,0 hPa 0,0 l/m 1,9 km/h (1 Bft) NW 319 0 min 0,000 mm 0,0 UV-I 40 W/m 14,3 C 24,2 C 4,8 km/h (1 Bft) 100,00 %
01.09.2016 17:38 24,2 C 55 % 1019,0 hPa 0,0 l/m 0,3 km/h (0 Bft) NW 319 0 min 0,000 mm 0,0 UV-I 39 W/m 14,6 C 24,2 C 1,6 km/h (1 Bft) 95,74 %
01.09.2016 17:40 24,2 C 55 % 1019,0 hPa 0,0 l/m 0,8 km/h (0 Bft) NW 319 0 min 0,000 mm 0,0 UV-I 37 W/m 14,6 C 24,2 C 1,6 km/h (1 Bft) 100,00 %
01.09.2016 17:42 24,1 C 55 % 1019,0 hPa 0,0 l/m 0,2 km/h (0 Bft) NW 319 0 min 0,000 mm 0,0 UV-I 33 W/m 14,5 C 24,1 C 1,6 km/h (1 Bft) 100,00 %
01.09.2016 17:44 23,9 C 55 % 1019,1 hPa 0,0 l/m 0,6 km/h (0 Bft) NW 319 0 min 0,000 mm 0,0 UV-I 28 W/m 14,3 C 23,9 C 3,2 km/h (1 Bft) 100,00 %
01.09.2016 17:46 23,9 C 56 % 1019,1 hPa 0,0 l/m 0,3 km/h (0 Bft) NW 319 0 min 0,000 mm 0,0 UV-I 25 W/m 14,6 C 23,9 C 1,6 km/h (1 Bft) 100,00 %
01.09.2016 17:48 23,9 C 56 % 1019,1 hPa 0,0 l/m 0,0 km/h (0 Bft) NW 319 0 min 0,000 mm 0,0 UV-I 21 W/m 14,6 C 23,9 C 0,0 km/h (0 Bft) 97,87 %
01.09.2016 17:50 23,8 C 58 % 1019,2 hPa 0,0 l/m 0,3 km/h (0 Bft) NW 319 0 min 0,000 mm 0,0 UV-I 18 W/m 15,0 C 23,8 C 1,6 km/h (1 Bft) 100,00 %
01.09.2016 17:52 23,8 C 57 % 1019,3 hPa 0,0 l/m 1,4 km/h (1 Bft) NW 319 0 min 0,000 mm 0,0 UV-I 15 W/m 14,8 C 23,8 C 3,2 km/h (1 Bft) 100,00 %
01.09.2016 17:54 23,7 C 55 % 1019,2 hPa 0,0 l/m 0,9 km/h (0 Bft) NW 319 0 min 0,000 mm 0,0 UV-I 12 W/m 14,1 C 23,7 C 3,2 km/h (1 Bft) 100,00 %
01.09.2016 17:56 23,8 C 57 % 1019,3 hPa 0,0 l/m 2,9 km/h (1 Bft) W-SW 250 0 min 0,000 mm 0,0 UV-I 11 W/m 14,8 C 23,8 C 4,8 km/h (1 Bft) 97,44 %
01.09.2016 17:58 23,8 C 57 % 1019,4 hPa 0,0 l/m 7,6 km/h (2 Bft) SW 221 0 min 0,000 mm 0,0 UV-I 11 W/m 14,8 C 23,5 C 9,7 km/h (2 Bft) 98,08 %
01.09.2016 18:00 23,8 C 59 % 1019,4 hPa 0,0 l/m 11,2 km/h (2 Bft) SW 232 0 min 0,076 mm 0,0 UV-I 11 W/m 15,3 C 22,6 C 25,7 km/h (4 Bft) 97,56 %
01.09.2016 18:02 23,6 C 62 % 1019,4 hPa 0,0 l/m 14,2 km/h (3 Bft) W-SW 248 0 min 0,000 mm 0,0 UV-I 11 W/m 15,9 C 21,8 C 22,5 km/h (4 Bft) 98,21 %
01.09.2016 18:04 23,3 C 66 % 1019,5 hPa 0,0 l/m 10,3 km/h (2 Bft) W-SW 251 0 min 0,000 mm 0,0 UV-I 11 W/m 16,6 C 22,2 C 17,7 km/h (3 Bft) 100,00 %
01.09.2016 18:06 22,9 C 68 % 1019,5 hPa 0,0 l/m 8,4 km/h (2 Bft) S-SW 196 0 min 0,000 mm 0,0 UV-I 9 W/m 16,7 C 22,3 C 16,1 km/h (3 Bft) 100,00 %
01.09.2016 18:08 22,3 C 69 % 1019,5 hPa 0,0 l/m 11,0 km/h (2 Bft) S-SO 154 0 min 0,000 mm 0,0 UV-I 9 W/m 16,3 C 20,9 C 17,7 km/h (3 Bft) 98,18 %
01.09.2016 18:10 21,8 C 72 % 1019,5 hPa 0,0 l/m 12,4 km/h (3 Bft) S-SW 212 0 min 0,000 mm 0,0 UV-I 9 W/m 16,5 C 20,0 C 22,5 km/h (4 Bft) 100,00 %
01.09.2016 18:12 21,4 C 74 % 1019,6 hPa 0,0 l/m 10,2 km/h (2 Bft) W-SW 249 0 min 0,000 mm 0,0 UV-I 10 W/m 16,6 C 20,1 C 16,1 km/h (3 Bft) 100,00 %
01.09.2016 18:14 21,1 C 75 % 1019,7 hPa 0,0 l/m 13,5 km/h (3 Bft) SW 234 0 min 0,000 mm 0,0 UV-I 13 W/m 16,5 C 18,9 C 20,9 km/h (4 Bft) 100,00 %
01.09.2016 18:16 20,8 C 77 % 1019,7 hPa 0,0 l/m 10,5 km/h (2 Bft) W-SW 240 0 min 0,000 mm 0,0 UV-I 18 W/m 16,6 C 19,4 C 16,1 km/h (3 Bft) 100,00 %
01.09.2016 18:18 20,8 C 78 % 1019,7 hPa 0,0 l/m 11,6 km/h (2 Bft) SW 231 0 min 0,000 mm 0,0 UV-I 22 W/m 16,8 C 19,1 C 19,3 km/h (3 Bft) 95,74 %
01.09.2016 18:20 20,9 C 80 % 1019,7 hPa 0,0 l/m 12,6 km/h (3 Bft) W-SW 237 0 min 0,000 mm 0,0 UV-I 26 W/m 17,3 C 18,9 C 17,7 km/h (3 Bft) 100,00 %
01.09.2016 18:22 20,9 C 78 % 1019,6 hPa 0,0 l/m 8,0 km/h (2 Bft) S 191 0 min 0,000 mm 0,0 UV-I 31 W/m 16,9 C 20,3 C 12,9 km/h (3 Bft) 97,37 %
01.09.2016 18:24 20,8 C 79 % 1019,6 hPa 0,0 l/m 12,4 km/h (3 Bft) S-SW 196 0 min 0,000 mm 0,0 UV-I 34 W/m 17,0 C 18,8 C 19,3 km/h (3 Bft) 97,87 %
01.09.2016 18:26 20,7 C 80 % 1019,5 hPa 0,2 l/m 10,9 km/h (2 Bft) S-SW 206 0 min 0,000 mm 0,0 UV-I 40 W/m 17,1 C 19,1 C 19,3 km/h (3 Bft) 100,00 %
01.09.2016 18:28 20,4 C 81 % 1019,5 hPa 0,0 l/m 10,5 km/h (2 Bft) S 184 0 min 0,000 mm 0,0 UV-I 44 W/m 17,0 C 18,9 C 16,1 km/h (3 Bft) 100,00 %
01.09.2016 18:30 20,3 C 83 % 1019,5 hPa 0,0 l/m 13,1 km/h (3 Bft) W-SW 237 0 min 0,000 mm 0,0 UV-I 48 W/m 17,3 C 18,1 C 20,9 km/h (4 Bft) 100,00 %
01.09.2016 18:32 20,1 C 84 % 1019,6 hPa 0,0 l/m 14,1 km/h (3 Bft) S-SW 203 0 min 0,000 mm 0,0 UV-I 51 W/m 17,3 C 17,6 C 22,5 km/h (4 Bft) 100,00 %
01.09.2016 18:34 19,9 C 85 % 1019,5 hPa 0,0 l/m 8,5 km/h (2 Bft) S-SW 201 0 min 0,000 mm 0,0 UV-I 57 W/m 17,3 C 19,1 C 19,3 km/h (3 Bft) 100,00 %
01.09.2016 18:36 19,9 C 85 % 1019,5 hPa 0,0 l/m 6,1 km/h (2 Bft) S 190 0 min 0,000 mm 0,0 UV-I 53 W/m 17,3 C 19,9 C 11,3 km/h (2 Bft) 97,87 %
01.09.2016 18:38 19,8 C 85 % 1019,4 hPa 0,0 l/m 6,1 km/h (2 Bft) SO 141 0 min 0,000 mm 0,0 UV-I 50 W/m 17,2 C 19,8 C 14,5 km/h (3 Bft) 98,08 %
01.09.2016 18:40 19,7 C 85 % 1019,3 hPa 0,0 l/m 6,6 km/h (2 Bft) S-SO 164 0 min 0,000 mm 0,0 UV-I 49 W/m 17,1 C 19,6 C 16,1 km/h (3 Bft) 100,00 %
01.09.2016 18:42 19,6 C 86 % 1019,3 hPa 0,2 l/m 7,4 km/h (2 Bft) S 179 0 min 0,000 mm 0,0 UV-I 49 W/m 17,2 C 19,2 C 11,3 km/h (2 Bft) 98,11 %
01.09.2016 18:44 19,6 C 87 % 1019,4 hPa 0,0 l/m 8,5 km/h (2 Bft) S 186 0 min 0,000 mm 0,0 UV-I 51 W/m 17,4 C 18,7 C 12,9 km/h (3 Bft) 94,74 %
01.09.2016 18:46 19,6 C 85 % 1019,4 hPa 0,0 l/m 9,0 km/h (2 Bft) S 188 0 min 0,000 mm 0,0 UV-I 53 W/m 17,0 C 18,6 C 14,5 km/h (3 Bft) 98,11 %
01.09.2016 18:48 19,5 C 85 % 1019,4 hPa 0,0 l/m 6,0 km/h (2 Bft) S 188 0 min 0,000 mm 0,0 UV-I 54 W/m 16,9 C 19,5 C 11,3 km/h (2 Bft) 97,73 %
01.09.2016 18:50 19,4 C 86 % 1019,3 hPa 0,0 l/m 6,3 km/h (2 Bft) S 187 0 min 0,000 mm 0,0 UV-I 58 W/m 17,0 C 19,4 C 9,7 km/h (2 Bft) 95,74 %
01.09.2016 18:52 19,4 C 85 % 1019,3 hPa 0,0 l/m 3,8 km/h (1 Bft) S 178 0 min 0,000 mm 0,0 UV-I 62 W/m 16,8 C 19,4 C 6,4 km/h (2 Bft) 95,74 %
01.09.2016 18:54 19,4 C 86 % 1019,3 hPa 0,0 l/m 3,0 km/h (1 Bft) S-SO 165 0 min 0,000 mm 0,0 UV-I 69 W/m 17,0 C 19,4 C 6,4 km/h (2 Bft) 98,00 %
01.09.2016 18:56 19,4 C 86 % 1019,2 hPa 0,0 l/m 2,1 km/h (1 Bft) S-SO 163 2 min 0,000 mm 0,0 UV-I 75 W/m 17,0 C 19,4 C 3,2 km/h (1 Bft) 97,56 %
01.09.2016 18:58 19,4 C 86 % 1019,2 hPa 0,0 l/m 1,9 km/h (1 Bft) S-SO 162 2 min 0,000 mm 0,0 UV-I 69 W/m 17,0 C 19,4 C 3,2 km/h (1 Bft) 97,87 %
01.09.2016 19:00 19,3 C 86 % 1019,2 hPa 0,0 l/m 1,7 km/h (1 Bft) S-SO 163 2 min 0,051 mm 0,0 UV-I 65 W/m 16,9 C 19,3 C 6,4 km/h (2 Bft) 96,23 %
01.09.2016 19:02 19,3 C 87 % 1019,3 hPa 0,0 l/m 4,0 km/h (1 Bft) S 186 2 min 0,000 mm 0,0 UV-I 63 W/m 17,1 C 19,3 C 6,4 km/h (2 Bft) 95,74 %
01.09.2016 19:04 19,3 C 87 % 1019,3 hPa 0,0 l/m 4,1 km/h (1 Bft) S 188 2 min 0,000 mm 0,0 UV-I 65 W/m 17,1 C 19,3 C 6,4 km/h (2 Bft) 94,74 %
01.09.2016 19:06 19,3 C 87 % 1019,3 hPa 0,0 l/m 4,1 km/h (1 Bft) S-SO 166 2 min 0,000 mm 0,0 UV-I 60 W/m 17,1 C 19,3 C 6,4 km/h (2 Bft) 98,00 %
01.09.2016 19:08 19,3 C 88 % 1019,2 hPa 0,0 l/m 1,7 km/h (1 Bft) S-SO 159 0 min 0,000 mm 0,0 UV-I 48 W/m 17,3 C 19,3 C 6,4 km/h (2 Bft) 96,00 %
01.09.2016 19:10 19,3 C 88 % 1019,3 hPa 0,0 l/m 3,0 km/h (1 Bft) S 184 0 min 0,000 mm 0,0 UV-I 40 W/m 17,3 C 19,3 C 6,4 km/h (2 Bft) 95,74 %
01.09.2016 19:12 19,2 C 88 % 1019,3 hPa 0,0 l/m 4,9 km/h (1 Bft) S-SW 208 0 min 0,000 mm 0,0 UV-I 33 W/m 17,2 C 19,2 C 6,4 km/h (2 Bft) 95,24 %
01.09.2016 19:14 19,2 C 88 % 1019,3 hPa 0,0 l/m 2,8 km/h (1 Bft) S 174 0 min 0,000 mm 0,0 UV-I 27 W/m 17,2 C 19,2 C 4,8 km/h (1 Bft) 98,18 %
01.09.2016 19:16 19,2 C 88 % 1019,3 hPa 0,0 l/m 3,7 km/h (1 Bft) S-SW 192 0 min 0,000 mm 0,0 UV-I 22 W/m 17,2 C 19,2 C 6,4 km/h (2 Bft) 100,00 %
01.09.2016 19:18 19,1 C 88 % 1019,3 hPa 0,0 l/m 5,3 km/h (1 Bft) S 187 0 min 0,000 mm 0,0 UV-I 17 W/m 17,1 C 19,1 C 8,0 km/h (2 Bft) 100,00 %
01.09.2016 19:20 19,1 C 87 % 1019,4 hPa 0,0 l/m 5,5 km/h (1 Bft) S 184 0 min 0,000 mm 0,0 UV-I 14 W/m 16,9 C 19,1 C 9,7 km/h (2 Bft) 100,00 %
01.09.2016 19:22 19,1 C 87 % 1019,5 hPa 0,0 l/m 6,7 km/h (2 Bft) SW 220 0 min 0,000 mm 0,0 UV-I 12 W/m 16,9 C 19,0 C 9,7 km/h (2 Bft) 100,00 %
01.09.2016 19:24 19,1 C 88 % 1019,5 hPa 0,0 l/m 8,2 km/h (2 Bft) SW 215 0 min 0,000 mm 0,0 UV-I 11 W/m 17,1 C 18,3 C 11,3 km/h (2 Bft) 100,00 %
01.09.2016 19:26 19,0 C 87 % 1019,6 hPa 0,0 l/m 8,0 km/h (2 Bft) SW 220 0 min 0,000 mm 0,0 UV-I 9 W/m 16,8 C 18,3 C 12,9 km/h (3 Bft) 98,11 %
01.09.2016 19:28 18,9 C 87 % 1019,6 hPa 0,0 l/m 9,1 km/h (2 Bft) S-SW 204 0 min 0,000 mm 0,0 UV-I 9 W/m 16,7 C 17,8 C 11,3 km/h (2 Bft) 100,00 %
01.09.2016 19:30 18,8 C 87 % 1019,7 hPa 0,0 l/m 7,1 km/h (2 Bft) S-SW 200 0 min 0,000 mm 0,0 UV-I 7 W/m 16,6 C 18,5 C 9,7 km/h (2 Bft) 100,00 %
01.09.2016 19:32 18,8 C 86 % 1019,6 hPa 0,0 l/m 7,1 km/h (2 Bft) S-SW 213 0 min 0,000 mm 0,0 UV-I 7 W/m 16,4 C 18,5 C 14,5 km/h (3 Bft) 100,00 %
01.09.2016 19:34 18,7 C 86 % 1019,6 hPa 0,0 l/m 8,4 km/h (2 Bft) S 185 0 min 0,000 mm 0,0 UV-I 6 W/m 16,3 C 17,8 C 11,3 km/h (2 Bft) 100,00 %
01.09.2016 19:36 18,6 C 86 % 1019,6 hPa 0,0 l/m 8,6 km/h (2 Bft) S 177 0 min 0,000 mm 0,0 UV-I 5 W/m 16,2 C 17,6 C 16,1 km/h (3 Bft) 100,00 %
01.09.2016 19:38 18,5 C 87 % 1019,7 hPa 0,0 l/m 6,8 km/h (2 Bft) S 189 0 min 0,000 mm 0,0 UV-I 5 W/m 16,3 C 18,3 C 9,7 km/h (2 Bft) 100,00 %
01.09.2016 19:40 18,4 C 87 % 1019,7 hPa 0,0 l/m 7,6 km/h (2 Bft) S-SO 160 0 min 0,000 mm 0,0 UV-I 5 W/m 16,2 C 17,8 C 12,9 km/h (3 Bft) 98,00 %
01.09.2016 19:42 18,3 C 87 % 1019,7 hPa 0,0 l/m 7,7 km/h (2 Bft) S-SO 157 0 min 0,000 mm 0,0 UV-I 5 W/m 16,1 C 17,7 C 12,9 km/h (3 Bft) 98,11 %
01.09.2016 19:44 18,3 C 86 % 1019,7 hPa 0,0 l/m 8,2 km/h (2 Bft) S-SW 209 0 min 0,000 mm 0,0 UV-I 5 W/m 15,9 C 17,5 C 12,9 km/h (3 Bft) 100,00 %
01.09.2016 19:46 18,3 C 86 % 1019,6 hPa 0,0 l/m 8,1 km/h (2 Bft) S-SO 150 0 min 0,000 mm 0,0 UV-I 0 W/m 15,9 C 17,5 C 11,3 km/h (2 Bft) 100,00 %
01.09.2016 19:48 18,3 C 86 % 1019,7 hPa 0,0 l/m 8,1 km/h (2 Bft) S 179 0 min 0,000 mm 0,0 UV-I 0 W/m 15,9 C 17,5 C 11,3 km/h (2 Bft) 100,00 %
01.09.2016 19:50 18,2 C 87 % 1019,6 hPa 0,0 l/m 7,5 km/h (2 Bft) S-SO 147 0 min 0,000 mm 0,0 UV-I 0 W/m 16,0 C 17,7 C 16,1 km/h (3 Bft) 100,00 %
01.09.2016 19:52 18,2 C 87 % 1019,7 hPa 0,0 l/m 4,8 km/h (1 Bft) S-SO 158 0 min 0,000 mm 0,0 UV-I 0 W/m 16,0 C 18,2 C 11,3 km/h (2 Bft) 100,00 %
01.09.2016 19:54 18,2 C 87 % 1019,7 hPa 0,0 l/m 6,2 km/h (2 Bft) S-SW 197 0 min 0,000 mm 0,0 UV-I 0 W/m 16,0 C 18,2 C 14,5 km/h (3 Bft) 98,18 %
01.09.2016 19:56 18,1 C 88 % 1019,7 hPa 0,0 l/m 7,0 km/h (2 Bft) S 190 0 min 0,000 mm 0,0 UV-I 0 W/m 16,1 C 17,8 C 9,7 km/h (2 Bft) 100,00 %
01.09.2016 19:58 18,1 C 88 % 1019,8 hPa 0,0 l/m 7,5 km/h (2 Bft) S 175 0 min 0,000 mm 0,0 UV-I 0 W/m 16,1 C 17,6 C 11,3 km/h (2 Bft) 100,00 %
01.09.2016 20:00 18,1 C 88 % 1019,8 hPa 0,0 l/m 6,7 km/h (2 Bft) S-SW 193 0 min 0,000 mm 0,0 UV-I 0 W/m 16,1 C 18,0 C 9,7 km/h (2 Bft) 100,00 %
01.09.2016 20:02 18,1 C 88 % 1019,8 hPa 0,0 l/m 5,4 km/h (1 Bft) S 175 0 min 0,025 mm 0,0 UV-I 0 W/m 16,1 C 18,1 C 8,0 km/h (2 Bft) 100,00 %
01.09.2016 20:04 18,0 C 88 % 1019,8 hPa 0,0 l/m 5,3 km/h (1 Bft) S-SO 164 0 min 0,000 mm 0,0 UV-I 0 W/m 16,0 C 18,0 C 9,7 km/h (2 Bft) 100,00 %
01.09.2016 20:06 18,0 C 88 % 1019,8 hPa 0,0 l/m 5,1 km/h (1 Bft) S-SO 167 0 min 0,000 mm 0,0 UV-I 0 W/m 16,0 C 18,0 C 9,7 km/h (2 Bft) 100,00 %
01.09.2016 20:08 18,1 C 88 % 1019,8 hPa 0,0 l/m 5,8 km/h (2 Bft) S 177 0 min 0,000 mm 0,0 UV-I 0 W/m 16,1 C 18,1 C 9,7 km/h (2 Bft) 100,00 %
01.09.2016 20:10 18,1 C 88 % 1019,7 hPa 0,0 l/m 7,5 km/h (2 Bft) S 171 0 min 0,000 mm 0,0 UV-I 0 W/m 16,1 C 17,6 C 12,9 km/h (3 Bft) 100,00 %
01.09.2016 20:12 18,1 C 87 % 1019,8 hPa 0,0 l/m 7,4 km/h (2 Bft) S 172 0 min 0,000 mm 0,0 UV-I 0 W/m 15,9 C 17,6 C 11,3 km/h (2 Bft) 100,00 %
01.09.2016 20:14 18,1 C 87 % 1019,8 hPa 0,0 l/m 4,8 km/h (1 Bft) S-SW 205 0 min 0,000 mm 0,0 UV-I 0 W/m 15,9 C 18,1 C 8,0 km/h (2 Bft) 100,00 %
01.09.2016 20:16 18,1 C 87 % 1019,8 hPa 0,0 l/m 4,2 km/h (1 Bft) S 191 0 min 0,000 mm 0,0 UV-I 0 W/m 15,9 C 18,1 C 6,4 km/h (2 Bft) 100,00 %
01.09.2016 20:18 18,0 C 88 % 1019,8 hPa 0,0 l/m 5,7 km/h (1 Bft) S 171 0 min 0,000 mm 0,0 UV-I 0 W/m 16,0 C 18,0 C 9,7 km/h (2 Bft) 100,00 %
01.09.2016 20:20 17,9 C 88 % 1019,8 hPa 0,0 l/m 4,4 km/h (1 Bft) S 182 0 min 0,000 mm 0,0 UV-I 0 W/m 15,9 C 17,9 C 6,4 km/h (2 Bft) 100,00 %
01.09.2016 20:22 17,9 C 88 % 1019,7 hPa 0,0 l/m 4,3 km/h (1 Bft) S 191 0 min 0,000 mm 0,0 UV-I 0 W/m 15,9 C 17,9 C 6,4 km/h (2 Bft) 100,00 %
01.09.2016 20:24 17,9 C 88 % 1019,7 hPa 0,0 l/m 5,5 km/h (1 Bft) S-SW 209 0 min 0,000 mm 0,0 UV-I 0 W/m 15,9 C 17,9 C 8,0 km/h (2 Bft) 100,00 %
01.09.2016 20:26 17,9 C 88 % 1019,7 hPa 0,0 l/m 4,7 km/h (1 Bft) S 181 0 min 0,000 mm 0,0 UV-I 0 W/m 15,9 C 17,9 C 8,0 km/h (2 Bft) 100,00 %
01.09.2016 20:28 17,8 C 88 % 1019,7 hPa 0,0 l/m 5,5 km/h (1 Bft) S 173 0 min 0,000 mm 0,0 UV-I 0 W/m 15,8 C 17,8 C 8,0 km/h (2 Bft) 100,00 %
01.09.2016 20:30 17,8 C 88 % 1019,8 hPa 0,0 l/m 4,3 km/h (1 Bft) S 185 0 min 0,000 mm 0,0 UV-I 0 W/m 15,8 C 17,8 C 6,4 km/h (2 Bft) 100,00 %
01.09.2016 20:32 17,8 C 89 % 1019,8 hPa 0,0 l/m 4,3 km/h (1 Bft) S 173 0 min 0,000 mm 0,0 UV-I 0 W/m 16,0 C 17,8 C 8,0 km/h (2 Bft) 100,00 %
01.09.2016 20:34 17,8 C 88 % 1019,7 hPa 0,0 l/m 3,8 km/h (1 Bft) S 174 0 min 0,000 mm 0,0 UV-I 0 W/m 15,8 C 17,8 C 8,0 km/h (2 Bft) 100,00 %
01.09.2016 20:36 17,9 C 88 % 1019,7 hPa 0,0 l/m 4,2 km/h (1 Bft) S 178 0 min 0,000 mm 0,0 UV-I 0 W/m 15,9 C 17,9 C 6,4 km/h (2 Bft) 100,00 %
01.09.2016 20:38 17,9 C 87 % 1019,7 hPa 0,0 l/m 4,5 km/h (1 Bft) S-SO 165 0 min 0,000 mm 0,0 UV-I 0 W/m 15,7 C 17,9 C 8,0 km/h (2 Bft) 100,00 %
01.09.2016 20:40 18,1 C 87 % 1019,7 hPa 0,0 l/m 6,3 km/h (2 Bft) S 189 0 min 0,000 mm 0,0 UV-I 0 W/m 15,9 C 18,1 C 8,0 km/h (2 Bft) 93,62 %
01.09.2016 20:42 18,1 C 87 % 1019,8 hPa 0,0 l/m 6,4 km/h (2 Bft) S-SO 167 0 min 0,000 mm 0,0 UV-I 0 W/m 15,9 C 18,1 C 9,7 km/h (2 Bft) 96,15 %
01.09.2016 20:44 18,1 C 87 % 1019,8 hPa 0,0 l/m 6,4 km/h (2 Bft) S-SW 196 0 min 0,000 mm 0,0 UV-I 0 W/m 15,9 C 18,1 C 9,7 km/h (2 Bft) 98,53 %
01.09.2016 20:46 18,0 C 88 % 1019,8 hPa 0,0 l/m 5,8 km/h (2 Bft) S 184 0 min 0,000 mm 0,0 UV-I 0 W/m 16,0 C 18,0 C 8,0 km/h (2 Bft) 95,74 %
01.09.2016 20:48 17,9 C 88 % 1019,8 hPa 0,0 l/m 5,1 km/h (1 Bft) S 177 0 min 0,000 mm 0,0 UV-I 0 W/m 15,9 C 17,9 C 8,0 km/h (2 Bft) 97,87 %
01.09.2016 20:50 17,8 C 88 % 1019,8 hPa 0,0 l/m 4,5 km/h (1 Bft) S-SW 202 0 min 0,000 mm 0,0 UV-I 0 W/m 15,8 C 17,8 C 6,4 km/h (2 Bft) 93,62 %
01.09.2016 20:52 17,7 C 89 % 1019,8 hPa 0,0 l/m 6,3 km/h (2 Bft) S-SW 207 0 min 0,000 mm 0,0 UV-I 0 W/m 15,9 C 17,7 C 8,0 km/h (2 Bft) 95,12 %
01.09.2016 20:54 17,7 C 89 % 1019,8 hPa 0,0 l/m 6,6 km/h (2 Bft) S-SW 202 0 min 0,000 mm 0,0 UV-I 0 W/m 15,9 C 17,6 C 9,7 km/h (2 Bft) 96,00 %
01.09.2016 20:56 17,6 C 90 % 1019,7 hPa 0,0 l/m 6,5 km/h (2 Bft) S-SO 153 0 min 0,000 mm 0,0 UV-I 0 W/m 15,9 C 17,6 C 9,7 km/h (2 Bft) 96,00 %
01.09.2016 20:58 17,6 C 90 % 1019,7 hPa 0,0 l/m 6,8 km/h (2 Bft) S-SW 193 0 min 0,000 mm 0,0 UV-I 0 W/m 15,9 C 17,4 C 9,7 km/h (2 Bft) 94,74 %
01.09.2016 21:00 17,6 C 90 % 1019,7 hPa 0,0 l/m 8,4 km/h (2 Bft) S-SW 198 0 min 0,000 mm 0,0 UV-I 0 W/m 15,9 C 16,7 C 11,3 km/h (2 Bft) 95,74 %
01.09.2016 21:02 17,7 C 90 % 1019,7 hPa 0,0 l/m 7,3 km/h (2 Bft) S 183 0 min 0,000 mm 0,0 UV-I 0 W/m 16,0 C 17,3 C 11,3 km/h (2 Bft) 93,62 %
01.09.2016 21:04 17,7 C 89 % 1019,7 hPa 0,0 l/m 7,9 km/h (2 Bft) S 188 0 min 0,000 mm 0,0 UV-I 0 W/m 15,9 C 17,0 C 9,7 km/h (2 Bft) 95,45 %
01.09.2016 21:06 17,8 C 89 % 1019,7 hPa 0,0 l/m 5,4 km/h (1 Bft) S 175 0 min 0,000 mm 0,0 UV-I 0 W/m 16,0 C 17,8 C 9,7 km/h (2 Bft) 98,00 %
01.09.2016 21:08 17,7 C 89 % 1019,7 hPa 0,0 l/m 5,2 km/h (1 Bft) S-SW 198 0 min 0,000 mm 0,0 UV-I 0 W/m 15,9 C 17,7 C 8,0 km/h (2 Bft) 96,00 %
01.09.2016 21:10 17,7 C 89 % 1019,8 hPa 0,0 l/m 5,4 km/h (1 Bft) S-SW 205 0 min 0,000 mm 0,0 UV-I 0 W/m 15,9 C 17,7 C 6,4 km/h (2 Bft) 94,87 %
01.09.2016 21:12 17,6 C 89 % 1019,8 hPa 0,0 l/m 5,1 km/h (1 Bft) S-SW 203 0 min 0,000 mm 0,0 UV-I 0 W/m 15,8 C 17,6 C 8,0 km/h (2 Bft) 94,00 %
01.09.2016 21:14 17,6 C 89 % 1019,8 hPa 0,0 l/m 5,2 km/h (1 Bft) S 186 0 min 0,000 mm 0,0 UV-I 0 W/m 15,8 C 17,6 C 9,7 km/h (2 Bft) 100,00 %
01.09.2016 21:16 17,6 C 89 % 1019,8 hPa 0,0 l/m 4,6 km/h (1 Bft) S-SW 206 0 min 0,000 mm 0,0 UV-I 0 W/m 15,8 C 17,6 C 8,0 km/h (2 Bft) 100,00 %
01.09.2016 21:18 17,6 C 90 % 1019,8 hPa 0,0 l/m 6,6 km/h (2 Bft) S 185 0 min 0,000 mm 0,0 UV-I 0 W/m 15,9 C 17,5 C 8,0 km/h (2 Bft) 100,00 %
01.09.2016 21:20 17,6 C 90 % 1019,8 hPa 0,0 l/m 7,6 km/h (2 Bft) S 179 0 min 0,000 mm 0,0 UV-I 0 W/m 15,9 C 17,0 C 11,3 km/h (2 Bft) 100,00 %
01.09.2016 21:22 17,6 C 89 % 1019,9 hPa 0,0 l/m 7,0 km/h (2 Bft) S-SW 197 0 min 0,000 mm 0,0 UV-I 0 W/m 15,8 C 17,3 C 11,3 km/h (2 Bft) 100,00 %
01.09.2016 21:24 17,7 C 89 % 1019,9 hPa 0,0 l/m 7,2 km/h (2 Bft) S 186 0 min 0,000 mm 0,0 UV-I 0 W/m 15,9 C 17,3 C 9,7 km/h (2 Bft) 100,00 %
01.09.2016 21:26 17,7 C 89 % 1019,9 hPa 0,0 l/m 7,4 km/h (2 Bft) S 184 0 min 0,000 mm 0,0 UV-I 0 W/m 15,9 C 17,2 C 11,3 km/h (2 Bft) 100,00 %
01.09.2016 21:28 17,8 C 89 % 1019,9 hPa 0,0 l/m 5,6 km/h (1 Bft) S 188 0 min 0,000 mm 0,0 UV-I 0 W/m 16,0 C 17,8 C 9,7 km/h (2 Bft) 100,00 %
01.09.2016 21:30 17,8 C 89 % 1019,9 hPa 0,0 l/m 6,9 km/h (2 Bft) S-SW 199 0 min 0,000 mm 0,0 UV-I 0 W/m 16,0 C 17,6 C 9,7 km/h (2 Bft) 100,00 %
01.09.2016 21:32 17,8 C 89 % 1019,9 hPa 0,0 l/m 6,5 km/h (2 Bft) S-SW 195 0 min 0,000 mm 0,0 UV-I 0 W/m 16,0 C 17,8 C 9,7 km/h (2 Bft) 100,00 %
01.09.2016 21:34 17,8 C 89 % 1020,0 hPa 0,0 l/m 5,4 km/h (1 Bft) S-SW 207 0 min 0,000 mm 0,0 UV-I 0 W/m 16,0 C 17,8 C 8,0 km/h (2 Bft) 100,00 %
01.09.2016 21:36 17,8 C 89 % 1019,9 hPa 0,0 l/m 5,4 km/h (1 Bft) S 184 0 min 0,000 mm 0,0 UV-I 0 W/m 16,0 C 17,8 C 8,0 km/h (2 Bft) 100,00 %
01.09.2016 21:38 17,7 C 89 % 1019,9 hPa 0,0 l/m 5,7 km/h (1 Bft) S-SW 208 0 min 0,000 mm 0,0 UV-I 0 W/m 15,9 C 17,7 C 8,0 km/h (2 Bft) 100,00 %
01.09.2016 21:40 17,7 C 89 % 1019,9 hPa 0,0 l/m 6,0 km/h (2 Bft) S-SW 196 0 min 0,000 mm 0,0 UV-I 0 W/m 15,9 C 17,7 C 9,7 km/h (2 Bft) 100,00 %
01.09.2016 21:42 17,7 C 89 % 1019,9 hPa 0,0 l/m 5,4 km/h (1 Bft) S-SW 198 0 min 0,000 mm 0,0 UV-I 0 W/m 15,9 C 17,7 C 8,0 km/h (2 Bft) 98,21 %
01.09.2016 21:44 17,7 C 89 % 1019,9 hPa 0,0 l/m 4,0 km/h (1 Bft) S 180 0 min 0,000 mm 0,0 UV-I 0 W/m 15,9 C 17,7 C 6,4 km/h (2 Bft) 100,00 %
01.09.2016 21:46 17,7 C 89 % 1020,0 hPa 0,0 l/m 5,8 km/h (2 Bft) SW 216 0 min 0,000 mm 0,0 UV-I 0 W/m 15,9 C 17,7 C 9,7 km/h (2 Bft) 100,00 %
01.09.2016 21:48 17,7 C 89 % 1020,0 hPa 0,0 l/m 4,2 km/h (1 Bft) W-SW 240 0 min 0,000 mm 0,0 UV-I 0 W/m 15,9 C 17,7 C 6,4 km/h (2 Bft) 100,00 %
01.09.2016 21:50 17,7 C 88 % 1019,9 hPa 0,0 l/m 5,9 km/h (2 Bft) S-SW 192 0 min 0,000 mm 0,0 UV-I 0 W/m 15,7 C 17,7 C 8,0 km/h (2 Bft) 100,00 %
01.09.2016 21:52 17,7 C 89 % 1019,9 hPa 0,0 l/m 6,2 km/h (2 Bft) S-SW 205 0 min 0,000 mm 0,0 UV-I 0 W/m 15,9 C 17,7 C 8,0 km/h (2 Bft) 100,00 %
01.09.2016 21:54 17,7 C 88 % 1020,0 hPa 0,0 l/m 7,2 km/h (2 Bft) S 182 0 min 0,000 mm 0,0 UV-I 0 W/m 15,7 C 17,3 C 9,7 km/h (2 Bft) 100,00 %
01.09.2016 21:56 17,7 C 88 % 1020,0 hPa 0,0 l/m 5,3 km/h (1 Bft) S-SW 196 0 min 0,000 mm 0,0 UV-I 0 W/m 15,7 C 17,7 C 8,0 km/h (2 Bft) 100,00 %
01.09.2016 21:58 17,7 C 89 % 1020,0 hPa 0,0 l/m 4,3 km/h (1 Bft) S-SW 209 0 min 0,000 mm 0,0 UV-I 0 W/m 15,9 C 17,7 C 8,0 km/h (2 Bft) 100,00 %
01.09.2016 22:00 17,7 C 88 % 1020,0 hPa 0,0 l/m 5,0 km/h (1 Bft) SW 223 0 min 0,000 mm 0,0 UV-I 0 W/m 15,7 C 17,7 C 6,4 km/h (2 Bft) 100,00 %
01.09.2016 22:02 17,7 C 88 % 1020,0 hPa 0,0 l/m 4,0 km/h (1 Bft) S-SW 200 0 min 0,000 mm 0,0 UV-I 0 W/m 15,7 C 17,7 C 6,4 km/h (2 Bft) 100,00 %
01.09.2016 22:04 17,7 C 89 % 1020,0 hPa 0,0 l/m 3,8 km/h (1 Bft) S-SW 211 0 min 0,000 mm 0,0 UV-I 0 W/m 15,9 C 17,7 C 4,8 km/h (1 Bft) 100,00 %
01.09.2016 22:06 17,6 C 89 % 1020,1 hPa 0,0 l/m 3,4 km/h (1 Bft) S-SW 213 0 min 0,000 mm 0,0 UV-I 0 W/m 15,8 C 17,6 C 6,4 km/h (2 Bft) 100,00 %
01.09.2016 22:08 17,6 C 89 % 1020,1 hPa 0,0 l/m 4,3 km/h (1 Bft) S-SW 204 0 min 0,000 mm 0,0 UV-I 0 W/m 15,8 C 17,6 C 6,4 km/h (2 Bft) 100,00 %
01.09.2016 22:10 17,5 C 89 % 1020,1 hPa 0,0 l/m 4,1 km/h (1 Bft) S-SW 198 0 min 0,000 mm 0,0 UV-I 0 W/m 15,7 C 17,5 C 6,4 km/h (2 Bft) 100,00 %
01.09.2016 22:12 17,4 C 89 % 1020,0 hPa 0,0 l/m 3,3 km/h (1 Bft) S 175 0 min 0,000 mm 0,0 UV-I 0 W/m 15,6 C 17,4 C 6,4 km/h (2 Bft) 100,00 %
01.09.2016 22:14 17,4 C 89 % 1020,1 hPa 0,0 l/m 3,1 km/h (1 Bft) S 175 0 min 0,000 mm 0,0 UV-I 0 W/m 15,6 C 17,4 C 4,8 km/h (1 Bft) 100,00 %
01.09.2016 22:16 17,4 C 89 % 1020,1 hPa 0,0 l/m 3,5 km/h (1 Bft) S 184 0 min 0,000 mm 0,0 UV-I 0 W/m 15,6 C 17,4 C 6,4 km/h (2 Bft) 100,00 %
01.09.2016 22:18 17,5 C 89 % 1020,1 hPa 0,0 l/m 3,1 km/h (1 Bft) S 184 0 min 0,000 mm 0,0 UV-I 0 W/m 15,7 C 17,5 C 4,8 km/h (1 Bft) 100,00 %
01.09.2016 22:20 17,5 C 89 % 1020,0 hPa 0,0 l/m 3,2 km/h (1 Bft) S 184 0 min 0,000 mm 0,0 UV-I 0 W/m 15,7 C 17,5 C 4,8 km/h (1 Bft) 100,00 %
01.09.2016 22:22 17,6 C 89 % 1020,1 hPa 0,0 l/m 2,7 km/h (1 Bft) S 184 0 min 0,000 mm 0,0 UV-I 0 W/m 15,8 C 17,6 C 4,8 km/h (1 Bft) 98,11 %
01.09.2016 22:24 17,6 C 89 % 1020,1 hPa 0,0 l/m 0,8 km/h (0 Bft) S 184 0 min 0,000 mm 0,0 UV-I 0 W/m 15,8 C 17,6 C 3,2 km/h (1 Bft) 97,56 %
01.09.2016 22:26 17,6 C 89 % 1020,1 hPa 0,0 l/m 0,7 km/h (0 Bft) S 184 0 min 0,000 mm 0,0 UV-I 0 W/m 15,8 C 17,6 C 1,6 km/h (1 Bft) 100,00 %
01.09.2016 22:28 17,6 C 89 % 1020,1 hPa 0,0 l/m 1,9 km/h (1 Bft) S 184 0 min 0,000 mm 0,0 UV-I 0 W/m 15,8 C 17,6 C 3,2 km/h (1 Bft) 100,00 %
01.09.2016 22:30 17,6 C 89 % 1020,1 hPa 0,0 l/m 0,6 km/h (0 Bft) S 184 0 min 0,000 mm 0,0 UV-I 0 W/m 15,8 C 17,6 C 3,2 km/h (1 Bft) 100,00 %
01.09.2016 22:32 17,6 C 89 % 1020,1 hPa 0,0 l/m 2,1 km/h (1 Bft) S 184 0 min 0,000 mm 0,0 UV-I 0 W/m 15,8 C 17,6 C 3,2 km/h (1 Bft) 97,87 %
01.09.2016 22:34 17,5 C 89 % 1020,1 hPa 0,0 l/m 0,4 km/h (0 Bft) S 184 0 min 0,000 mm 0,0 UV-I 0 W/m 15,7 C 17,5 C 3,2 km/h (1 Bft) 100,00 %
01.09.2016 22:36 17,4 C 89 % 1020,1 hPa 0,0 l/m 0,1 km/h (0 Bft) S 184 0 min 0,000 mm 0,0 UV-I 0 W/m 15,6 C 17,4 C 1,6 km/h (1 Bft) 98,00 %
01.09.2016 22:38 17,4 C 90 % 1020,1 hPa 0,0 l/m 0,1 km/h (0 Bft) S 184 0 min 0,000 mm 0,0 UV-I 0 W/m 15,7 C 17,4 C 1,6 km/h (1 Bft) 98,00 %
01.09.2016 22:40 17,4 C 90 % 1020,1 hPa 0,0 l/m 1,3 km/h (1 Bft) S 184 0 min 0,000 mm 0,0 UV-I 0 W/m 15,7 C 17,4 C 3,2 km/h (1 Bft) 97,87 %
01.09.2016 22:42 17,4 C 90 % 1020,1 hPa 0,0 l/m 1,2 km/h (1 Bft) S 184 0 min 0,000 mm 0,0 UV-I 0 W/m 15,7 C 17,4 C 3,2 km/h (1 Bft) 97,87 %
01.09.2016 22:44 17,3 C 90 % 1020,1 hPa 0,0 l/m 0,7 km/h (0 Bft) S 184 0 min 0,000 mm 0,0 UV-I 0 W/m 15,6 C 17,3 C 1,6 km/h (1 Bft) 94,74 %
01.09.2016 22:46 17,3 C 90 % 1020,1 hPa 0,0 l/m 0,0 km/h (0 Bft) S 184 0 min 0,000 mm 0,0 UV-I 0 W/m 15,6 C 17,3 C 0,0 km/h (0 Bft) 97,87 %
01.09.2016 22:48 17,3 C 90 % 1020,1 hPa 0,0 l/m 0,0 km/h (0 Bft) S 184 0 min 0,000 mm 0,0 UV-I 0 W/m 15,6 C 17,3 C 0,0 km/h (0 Bft) 95,74 %
01.09.2016 22:50 17,2 C 91 % 1020,2 hPa 0,0 l/m 0,0 km/h (0 Bft) S 184 0 min 0,000 mm 0,0 UV-I 0 W/m 15,7 C 17,2 C 0,0 km/h (0 Bft) 96,36 %
01.09.2016 22:52 17,1 C 91 % 1020,2 hPa 0,0 l/m 0,0 km/h (0 Bft) S 184 0 min 0,000 mm 0,0 UV-I 0 W/m 15,6 C 17,1 C 0,0 km/h (0 Bft) 95,74 %
01.09.2016 22:54 16,9 C 91 % 1020,2 hPa 0,0 l/m 0,0 km/h (0 Bft) S 184 0 min 0,000 mm 0,0 UV-I 0 W/m 15,4 C 16,9 C 0,0 km/h (0 Bft) 97,87 %
01.09.2016 22:56 16,8 C 91 % 1020,3 hPa 0,0 l/m 1,2 km/h (1 Bft) S 184 0 min 0,000 mm 0,0 UV-I 0 W/m 15,3 C 16,8 C 1,6 km/h (1 Bft) 97,37 %
01.09.2016 22:58 16,8 C 92 % 1020,2 hPa 0,0 l/m 1,5 km/h (1 Bft) S 184 0 min 0,000 mm 0,0 UV-I 0 W/m 15,5 C 16,8 C 1,6 km/h (1 Bft) 97,87 %
01.09.2016 23:00 16,8 C 92 % 1020,3 hPa 0,0 l/m 1,6 km/h (1 Bft) S 184 0 min 0,000 mm 0,0 UV-I 0 W/m 15,5 C 16,8 C 3,2 km/h (1 Bft) 97,87 %
01.09.2016 23:02 16,8 C 92 % 1020,2 hPa 0,0 l/m 1,6 km/h (1 Bft) S 184 0 min 0,000 mm 0,0 UV-I 0 W/m 15,5 C 16,8 C 3,2 km/h (1 Bft) 95,74 %
01.09.2016 23:04 16,9 C 92 % 1020,3 hPa 0,0 l/m 0,0 km/h (0 Bft) S 184 0 min 0,000 mm 0,0 UV-I 0 W/m 15,6 C 16,9 C 1,6 km/h (1 Bft) 98,00 %
01.09.2016 23:06 16,8 C 92 % 1020,3 hPa 0,0 l/m 0,0 km/h (0 Bft) S 184 0 min 0,000 mm 0,0 UV-I 0 W/m 15,5 C 16,8 C 0,0 km/h (0 Bft) 97,92 %
01.09.2016 23:08 16,8 C 92 % 1020,3 hPa 0,0 l/m 1,3 km/h (1 Bft) S 184 0 min 0,000 mm 0,0 UV-I 0 W/m 15,5 C 16,8 C 3,2 km/h (1 Bft) 97,87 %
01.09.2016 23:10 16,8 C 92 % 1020,3 hPa 0,0 l/m 0,5 km/h (0 Bft) S 184 0 min 0,000 mm 0,0 UV-I 0 W/m 15,5 C 16,8 C 1,6 km/h (1 Bft) 97,56 %
01.09.2016 23:12 16,8 C 92 % 1020,2 hPa 0,0 l/m 1,6 km/h (1 Bft) S 184 0 min 0,000 mm 0,0 UV-I 0 W/m 15,5 C 16,8 C 3,2 km/h (1 Bft) 96,00 %
01.09.2016 23:14 16,8 C 92 % 1020,1 hPa 0,0 l/m 0,9 km/h (0 Bft) S 184 0 min 0,000 mm 0,0 UV-I 0 W/m 15,5 C 16,8 C 1,6 km/h (1 Bft) 97,87 %
01.09.2016 23:16 16,8 C 93 % 1020,2 hPa 0,0 l/m 1,2 km/h (1 Bft) S 184 0 min 0,000 mm 0,0 UV-I 0 W/m 15,7 C 16,8 C 3,2 km/h (1 Bft) 98,00 %
01.09.2016 23:18 16,8 C 93 % 1020,1 hPa 0,0 l/m 0,7 km/h (0 Bft) S 184 0 min 0,000 mm 0,0 UV-I 0 W/m 15,7 C 16,8 C 1,6 km/h (1 Bft) 100,00 %
01.09.2016 23:20 16,7 C 92 % 1020,1 hPa 0,0 l/m 0,4 km/h (0 Bft) S 184 0 min 0,000 mm 0,0 UV-I 0 W/m 15,4 C 16,7 C 1,6 km/h (1 Bft) 97,87 %
01.09.2016 23:22 16,6 C 92 % 1020,1 hPa 0,0 l/m 0,0 km/h (0 Bft) S 184 0 min 0,000 mm 0,0 UV-I 0 W/m 15,3 C 16,6 C 0,0 km/h (0 Bft) 100,00 %
01.09.2016 23:24 16,5 C 93 % 1020,2 hPa 0,0 l/m 0,2 km/h (0 Bft) S 184 0 min 0,000 mm 0,0 UV-I 0 W/m 15,4 C 16,5 C 1,6 km/h (1 Bft) 100,00 %
01.09.2016 23:26 16,5 C 93 % 1020,2 hPa 0,0 l/m 0,0 km/h (0 Bft) S 184 0 min 0,000 mm 0,0 UV-I 0 W/m 15,4 C 16,5 C 1,6 km/h (1 Bft) 100,00 %
01.09.2016 23:28 16,5 C 93 % 1020,3 hPa 0,0 l/m 0,5 km/h (0 Bft) S 184 0 min 0,000 mm 0,0 UV-I 0 W/m 15,4 C 16,5 C 1,6 km/h (1 Bft) 97,87 %
01.09.2016 23:30 16,4 C 92 % 1020,3 hPa 0,0 l/m 0,6 km/h (0 Bft) S 184 0 min 0,000 mm 0,0 UV-I 0 W/m 15,1 C 16,4 C 1,6 km/h (1 Bft) 100,00 %
01.09.2016 23:32 16,3 C 93 % 1020,3 hPa 0,0 l/m 0,0 km/h (0 Bft) S 184 0 min 0,000 mm 0,0 UV-I 0 W/m 15,2 C 16,3 C 1,6 km/h (1 Bft) 100,00 %
01.09.2016 23:34 16,2 C 93 % 1020,3 hPa 0,0 l/m 0,0 km/h (0 Bft) S 184 0 min 0,000 mm 0,0 UV-I 0 W/m 15,1 C 16,2 C 0,0 km/h (0 Bft) 100,00 %
01.09.2016 23:36 16,3 C 94 % 1020,3 hPa 0,0 l/m 0,0 km/h (0 Bft) S 184 0 min 0,000 mm 0,0 UV-I 0 W/m 15,3 C 16,3 C 0,0 km/h (0 Bft) 100,00 %
01.09.2016 23:38 16,4 C 94 % 1020,2 hPa 0,0 l/m 0,8 km/h (0 Bft) S 184 0 min 0,000 mm 0,0 UV-I 0 W/m 15,4 C 16,4 C 3,2 km/h (1 Bft) 100,00 %
01.09.2016 23:40 16,4 C 94 % 1020,2 hPa 0,0 l/m 0,6 km/h (0 Bft) S 184 0 min 0,000 mm 0,0 UV-I 0 W/m 15,4 C 16,4 C 1,6 km/h (1 Bft) 100,00 %
01.09.2016 23:42 16,4 C 94 % 1020,2 hPa 0,0 l/m 1,6 km/h (1 Bft) S 184 0 min 0,000 mm 0,0 UV-I 0 W/m 15,4 C 16,4 C 3,2 km/h (1 Bft) 100,00 %
01.09.2016 23:44 16,4 C 94 % 1020,2 hPa 0,0 l/m 2,3 km/h (1 Bft) S 184 0 min 0,000 mm 0,0 UV-I 0 W/m 15,4 C 16,4 C 3,2 km/h (1 Bft) 100,00 %
01.09.2016 23:46 16,4 C 94 % 1020,1 hPa 0,0 l/m 2,9 km/h (1 Bft) S 184 0 min 0,000 mm 0,0 UV-I 0 W/m 15,4 C 16,4 C 4,8 km/h (1 Bft) 97,92 %
01.09.2016 23:48 16,5 C 94 % 1020,0 hPa 0,0 l/m 2,4 km/h (1 Bft) S 184 0 min 0,000 mm 0,0 UV-I 0 W/m 15,5 C 16,5 C 3,2 km/h (1 Bft) 100,00 %
01.09.2016 23:50 16,6 C 94 % 1020,0 hPa 0,0 l/m 3,2 km/h (1 Bft) S 184 0 min 0,000 mm 0,0 UV-I 0 W/m 15,6 C 16,6 C 4,8 km/h (1 Bft) 100,00 %
01.09.2016 23:52 16,6 C 94 % 1020,1 hPa 0,0 l/m 2,6 km/h (1 Bft) S 184 0 min 0,000 mm 0,0 UV-I 0 W/m 15,6 C 16,6 C 4,8 km/h (1 Bft) 100,00 %
01.09.2016 23:54 16,7 C 94 % 1020,0 hPa 0,0 l/m 1,4 km/h (1 Bft) S 184 0 min 0,000 mm 0,0 UV-I 0 W/m 15,7 C 16,7 C 3,2 km/h (1 Bft) 100,00 %
01.09.2016 23:56 16,7 C 94 % 1020,1 hPa 0,0 l/m 1,3 km/h (1 Bft) S 184 0 min 0,000 mm 0,0 UV-I 0 W/m 15,7 C 16,7 C 3,2 km/h (1 Bft) 100,00 %
01.09.2016 23:58 16,7 C 93 % 1020,0 hPa 0,0 l/m 2,2 km/h (1 Bft) S 184 0 min 0,000 mm 0,0 UV-I 0 W/m 15,6 C 16,7 C 3,2 km/h (1 Bft) 100,00 %
_ Min-Zeit 06:18 15:30 17:06 - 00:12 - - - - - - 05:30 06:18 00:12 13:15
Minimum _ 11,7 C 45 % 1018,9 hPa - 0,0 km/h (0 Bft) - - - - - - 10,9 C 11,7 C 0,0 km/h (0 Bft) 77,19 %
_ Max-Zeit 16:12 06:06 10:36 18:26 18:02 - - 11:55 13:00 12:44 14:38 11:46 16:08 18:00 00:00
Maximum _ 26,9 C 96 % 1021,1 hPa 0,2 l/m 14,2 km/h
W-SW (3 Bft)
- - 5 min 0,483 mm 5,0 UV-I 927 W/m 17,5 C 26,8 C 25,7 km/h
W-SW (4 Bft)
100,00 %
Durchschnitt _ 18,2 C 80 % 1019,9 hPa #0,4 l/m 3,3 km/h (1 Bft) S - #7:58 h #3,327 mm 3,0 UV-I 368 W/m 14,2 C 18,1 C 6,1 km/h (2 Bft) 98,46 %